[{"header": {"parameterCategory": 1, "parameterNumber": 2, "dx": 0.06612293990616946, "dy": 0.0552356325346848, "nx": 98, "ny": 59, "la1": 35.046912555036876, "la2": 31.78801023549047, "lo1": -121.43107172385933, "lo2": -114.95102361305473, "refTime": "2026041309"}, "data": [26.82, 27.27, 27.72, 27.72, 28.16, 28.61, 28.61, 29.06, 29.5, 29.95, 29.95, 30.4, 30.4, 30.84, 31.29, 31.29, 31.29, 31.74, 31.74, 32.19, 32.19, 32.19, 32.63, 32.63, 32.63, 32.63, 32.63, 33.08, 33.08, 33.53, 33.97, 34.42, 34.42, 34.87, 34.87, 34.87, 34.87, 34.87, 34.87, 34.87, 34.42, 34.42, 33.97, 33.53, 32.63, 31.74, 31.74, 31.74, 31.74, 32.19, 32.19, 31.74, 31.29, 30.84, 30.4, 29.95, 29.95, 29.5, 29.5, 29.06, 29.06, 29.5, 29.5, 29.5, 29.95, 29.95, 29.5, 29.5, 29.06, 28.16, 27.72, 27.27, 26.82, 26.82, 26.82, 26.82, 26.82, 27.27, 27.27, 27.72, 27.72, 27.72, 28.16, 28.61, 28.61, 29.06, 29.06, 29.5, 29.5, 29.06, 28.61, 28.61, 28.61, 29.06, 28.61, 28.16, 27.27, 26.37, 26.82, 26.82, 27.27, 27.72, 27.72, 28.16, 28.61, 29.06, 29.06, 29.5, 29.95, 29.95, 30.4, 30.4, 30.84, 30.84, 31.29, 31.29, 31.29, 31.74, 31.74, 31.74, 31.74, 32.19, 32.19, 32.19, 32.19, 32.63, 33.08, 33.53, 33.97, 33.97, 34.42, 34.42, 34.42, 34.42, 34.42, 34.87, 34.87, 34.42, 34.42, 33.97, 33.53, 33.08, 32.63, 32.19, 32.63, 32.63, 32.63, 32.63, 32.19, 31.74, 31.74, 31.29, 30.84, 30.84, 30.4, 29.95, 29.5, 29.5, 29.5, 29.5, 29.95, 29.95, 30.4, 30.4, 29.95, 29.95, 29.5, 28.61, 28.16, 27.72, 27.27, 26.82, 26.82, 26.82, 27.27, 27.27, 27.27, 27.72, 27.72, 27.72, 28.16, 28.61, 28.61, 29.06, 29.06, 29.5, 29.5, 29.06, 28.61, 28.61, 28.61, 29.06, 28.61, 28.16, 27.27, 26.37, 26.37, 26.82, 27.27, 27.27, 27.72, 28.16, 28.16, 28.61, 29.06, 29.06, 29.5, 29.95, 29.95, 30.4, 30.4, 30.84, 30.84, 30.84, 31.29, 31.29, 31.74, 31.74, 31.74, 31.74, 31.74, 31.74, 32.19, 32.19, 32.63, 33.08, 33.53, 33.97, 34.42, 34.42, 34.42, 34.42, 34.42, 34.42, 34.42, 34.42, 33.97, 33.53, 33.53, 33.53, 33.53, 33.08, 33.08, 33.08, 32.63, 32.63, 32.19, 32.19, 31.74, 31.74, 31.74, 31.29, 30.84, 30.4, 29.95, 29.95, 29.95, 29.95, 29.95, 30.4, 30.4, 30.4, 30.4, 29.95, 29.5, 29.06, 28.61, 27.72, 27.27, 27.27, 27.27, 27.27, 27.27, 27.27, 27.72, 27.72, 27.72, 27.72, 28.16, 28.16, 28.61, 29.06, 29.5, 29.5, 29.06, 28.61, 28.61, 29.06, 29.06, 29.5, 29.06, 28.61, 27.27, 26.37, 26.37, 26.82, 26.82, 27.27, 27.27, 27.72, 28.16, 28.16, 28.61, 29.06, 29.06, 29.5, 29.5, 29.95, 30.4, 30.4, 30.4, 30.84, 30.84, 30.84, 31.29, 31.29, 31.29, 31.29, 31.29, 31.29, 31.74, 31.74, 32.63, 33.08, 33.53, 33.97, 33.97, 33.97, 33.97, 33.97, 33.97, 33.97, 33.97, 33.97, 33.53, 33.53, 33.97, 33.97, 33.53, 33.53, 33.08, 33.08, 32.63, 32.63, 32.19, 32.19, 32.19, 32.19, 31.74, 31.74, 31.29, 30.84, 30.4, 30.4, 29.95, 30.4, 30.4, 30.84, 30.84, 30.84, 30.4, 29.95, 29.95, 29.5, 28.61, 28.16, 27.72, 27.27, 27.72, 27.72, 27.72, 27.72, 27.72, 28.16, 28.16, 28.16, 28.16, 28.61, 29.06, 29.06, 29.06, 29.5, 29.06, 28.61, 29.06, 29.06, 29.5, 29.5, 29.5, 28.61, 27.72, 26.82, 26.37, 26.37, 26.82, 26.82, 27.27, 27.72, 27.72, 28.16, 28.61, 28.61, 29.06, 29.06, 29.5, 29.5, 29.95, 29.95, 30.4, 30.4, 30.84, 30.84, 30.84, 30.84, 30.84, 30.84, 31.29, 31.29, 31.29, 31.74, 32.19, 32.63, 33.08, 33.53, 33.97, 33.97, 33.53, 33.97, 33.53, 33.53, 33.53, 33.53, 33.53, 33.97, 33.97, 33.97, 33.97, 33.53, 33.08, 33.08, 32.63, 32.63, 32.63, 32.19, 32.19, 32.19, 32.19, 31.74, 31.74, 31.29, 30.84, 30.4, 30.84, 30.84, 31.29, 31.29, 31.29, 30.84, 30.84, 30.4, 29.95, 29.5, 29.06, 28.16, 27.72, 27.27, 27.72, 28.16, 28.16, 28.16, 28.16, 28.16, 28.16, 28.16, 28.16, 28.61, 29.06, 29.06, 28.61, 29.06, 29.06, 29.06, 29.06, 29.06, 29.5, 29.5, 29.5, 28.16, 27.72, 27.27, 25.93, 26.37, 26.82, 26.82, 27.27, 27.27, 27.72, 28.16, 28.16, 28.61, 28.61, 29.06, 29.06, 29.5, 29.5, 29.95, 29.95, 29.95, 30.4, 30.4, 30.4, 30.84, 30.84, 30.84, 30.84, 30.84, 30.84, 31.29, 31.74, 32.19, 33.08, 33.53, 33.53, 33.53, 33.08, 33.53, 33.53, 33.08, 33.53, 33.97, 33.97, 33.97, 33.97, 33.97, 33.53, 33.53, 33.08, 33.08, 32.63, 32.63, 32.63, 32.19, 32.19, 32.19, 32.19, 31.74, 31.74, 31.74, 31.29, 30.84, 31.29, 31.29, 31.29, 31.29, 31.29, 30.84, 30.84, 30.84, 30.4, 29.95, 29.06, 28.61, 27.72, 27.27, 27.27, 27.72, 28.61, 28.61, 28.61, 28.16, 28.16, 28.16, 28.16, 28.16, 28.61, 28.61, 28.61, 29.06, 29.06, 29.5, 29.06, 28.61, 29.06, 29.5, 29.06, 28.16, 27.72, 27.27, 25.93, 26.37, 26.37, 26.82, 26.82, 27.27, 27.72, 27.72, 28.16, 28.16, 28.61, 28.61, 29.06, 29.06, 29.5, 29.5, 29.5, 29.95, 29.95, 30.4, 30.4, 30.4, 30.84, 30.84, 30.4, 30.84, 30.84, 30.84, 31.74, 32.19, 32.63, 33.08, 33.08, 33.08, 33.08, 33.08, 33.08, 33.08, 33.53, 34.42, 34.42, 33.97, 33.97, 33.53, 33.53, 33.53, 33.08, 33.08, 32.63, 32.63, 32.63, 32.63, 32.63, 32.63, 32.19, 32.19, 31.74, 31.74, 31.29, 31.29, 31.29, 31.74, 31.74, 31.74, 31.29, 30.84, 30.4, 30.84, 30.4, 29.95, 29.5, 29.06, 28.16, 27.27, 26.82, 27.27, 28.61, 29.5, 29.06, 28.61, 28.16, 27.72, 27.72, 28.16, 28.16, 28.61, 29.06, 29.06, 29.06, 29.06, 29.06, 29.06, 29.06, 29.06, 28.16, 27.72, 27.27, 27.72, 25.93, 25.93, 26.37, 26.82, 26.82, 27.27, 27.27, 27.72, 27.72, 28.16, 28.16, 28.61, 28.61, 28.61, 29.06, 29.5, 29.5, 29.5, 29.95, 29.95, 29.95, 30.4, 30.4, 30.4, 30.4, 30.4, 30.84, 30.84, 31.29, 31.74, 32.19, 32.19, 32.63, 32.63, 32.63, 33.08, 33.53, 33.08, 33.53, 33.97, 34.42, 33.97, 33.53, 33.53, 33.08, 33.08, 33.08, 32.63, 33.08, 33.08, 32.63, 32.63, 32.63, 32.63, 32.19, 32.19, 32.19, 31.74, 31.74, 31.74, 31.74, 31.74, 31.74, 31.74, 31.74, 31.29, 30.4, 30.4, 30.4, 30.4, 29.95, 29.5, 28.61, 27.27, 26.82, 26.82, 28.16, 29.06, 29.5, 29.06, 28.61, 28.16, 27.72, 27.72, 28.61, 29.06, 29.06, 29.06, 29.06, 29.06, 29.06, 29.06, 29.06, 28.16, 27.72, 27.27, 27.27, 27.27, 25.93, 25.93, 26.37, 26.37, 26.82, 26.82, 27.27, 27.27, 27.72, 27.72, 28.16, 28.16, 28.61, 28.61, 28.61, 29.06, 29.06, 29.5, 29.5, 29.95, 29.95, 29.95, 29.95, 30.4, 30.4, 30.4, 30.4, 31.29, 31.29, 31.29, 31.29, 31.74, 32.19, 32.63, 32.63, 33.08, 33.08, 33.53, 33.53, 33.97, 33.97, 33.97, 33.53, 33.53, 33.08, 33.08, 33.08, 32.63, 32.63, 33.08, 33.08, 32.63, 32.63, 32.63, 32.19, 32.19, 32.19, 31.74, 31.74, 31.74, 31.74, 31.74, 31.74, 31.74, 31.74, 31.29, 30.4, 30.4, 30.4, 30.4, 30.4, 29.5, 28.61, 27.72, 27.27, 27.27, 27.72, 28.61, 29.06, 29.06, 29.06, 28.16, 27.72, 28.16, 28.61, 29.06, 29.06, 29.06, 29.06, 29.06, 29.06, 29.06, 28.61, 28.16, 27.27, 27.27, 27.27, 27.27, 25.48, 25.93, 25.93, 26.37, 26.82, 26.82, 27.27, 27.27, 27.72, 27.72, 27.72, 28.16, 28.16, 28.61, 28.61, 28.61, 29.06, 29.06, 29.5, 29.5, 29.5, 29.5, 29.95, 29.95, 29.95, 29.95, 30.4, 30.84, 30.4, 30.4, 30.84, 31.74, 32.19, 32.63, 32.63, 32.19, 32.63, 33.08, 33.53, 33.53, 33.97, 33.97, 33.53, 33.53, 33.08, 33.08, 33.08, 32.63, 32.63, 32.63, 33.08, 32.63, 32.63, 32.63, 32.19, 32.19, 32.19, 31.74, 31.74, 31.74, 31.74, 31.74, 31.74, 31.74, 31.74, 31.29, 30.84, 30.4, 30.4, 30.4, 30.4, 29.5, 29.06, 28.16, 27.72, 27.27, 27.72, 28.16, 28.16, 28.61, 28.61, 29.06, 28.16, 28.16, 28.61, 29.06, 29.06, 29.06, 29.06, 29.06, 29.06, 28.61, 28.61, 28.16, 27.27, 27.27, 27.72, 27.72, 25.48, 25.93, 25.93, 26.37, 26.37, 26.82, 26.82, 27.27, 27.27, 27.72, 27.72, 27.72, 28.16, 28.16, 28.61, 28.61, 29.06, 29.06, 29.06, 29.5, 29.5, 29.5, 29.95, 29.95, 29.95, 29.95, 29.95, 29.95, 30.4, 29.95, 30.4, 31.29, 32.19, 32.19, 32.19, 31.74, 32.19, 33.08, 33.53, 33.53, 33.97, 33.53, 33.53, 33.53, 33.08, 33.08, 33.08, 32.63, 32.63, 32.63, 32.63, 32.63, 32.63, 32.63, 32.63, 32.19, 31.74, 31.74, 31.74, 31.74, 31.74, 31.74, 31.74, 32.19, 32.19, 31.74, 31.29, 30.84, 30.84, 30.4, 30.4, 29.95, 29.06, 28.61, 28.16, 27.72, 28.16, 28.16, 27.72, 28.16, 28.16, 28.61, 28.61, 28.61, 29.06, 29.06, 29.5, 29.5, 29.5, 29.5, 29.06, 28.61, 28.61, 28.16, 27.72, 27.72, 27.72, 27.72, 25.48, 25.48, 25.93, 25.93, 26.37, 26.37, 26.82, 26.82, 27.27, 27.27, 27.72, 27.72, 27.72, 28.16, 28.16, 28.61, 28.61, 28.61, 29.06, 29.06, 29.06, 29.5, 29.5, 29.5, 29.5, 29.5, 29.5, 29.95, 29.95, 29.95, 29.95, 30.84, 31.74, 31.29, 31.74, 31.74, 32.19, 32.63, 33.08, 33.08, 33.08, 33.08, 33.08, 33.08, 33.08, 33.08, 33.08, 32.63, 32.63, 32.63, 32.63, 32.19, 32.19, 32.19, 32.63, 32.19, 31.74, 31.74, 31.74, 31.74, 31.74, 31.74, 32.19, 32.63, 32.19, 31.74, 31.29, 30.84, 30.84, 30.4, 30.4, 29.95, 29.06, 29.06, 28.61, 28.16, 28.16, 28.16, 27.72, 28.16, 28.61, 28.16, 28.61, 29.06, 29.06, 29.06, 29.5, 29.5, 29.5, 29.5, 29.06, 29.06, 28.61, 28.61, 27.72, 28.16, 28.16, 28.16, 25.48, 25.48, 25.93, 25.93, 26.37, 26.37, 26.82, 26.82, 26.82, 27.27, 27.27, 27.72, 27.72, 28.16, 28.16, 28.16, 28.61, 28.61, 28.61, 29.06, 29.06, 29.06, 29.06, 29.06, 29.06, 29.5, 29.5, 29.5, 29.5, 29.95, 29.95, 30.4, 30.84, 30.84, 31.29, 31.74, 31.74, 32.19, 32.63, 32.63, 32.63, 33.08, 33.08, 33.08, 33.53, 33.08, 33.08, 33.08, 32.63, 32.63, 32.63, 32.19, 32.19, 32.19, 32.19, 32.19, 32.19, 31.29, 31.29, 31.74, 32.19, 32.19, 32.19, 32.63, 32.19, 31.74, 31.29, 31.29, 30.84, 30.4, 30.4, 29.95, 29.5, 29.06, 28.61, 28.16, 27.72, 27.72, 28.16, 28.61, 28.61, 28.16, 28.16, 29.06, 29.06, 29.06, 29.5, 29.95, 29.5, 29.5, 29.5, 29.5, 29.06, 28.61, 28.16, 28.61, 28.61, 28.61, 25.48, 25.48, 25.93, 25.93, 25.93, 26.37, 26.37, 26.82, 26.82, 27.27, 27.27, 27.27, 27.72, 27.72, 28.16, 28.16, 28.16, 28.61, 28.61, 28.61, 29.06, 29.06, 29.06, 29.06, 29.06, 29.06, 29.06, 29.06, 29.5, 29.5, 29.5, 29.95, 30.4, 30.84, 31.29, 31.29, 31.29, 31.74, 32.19, 32.19, 32.19, 32.63, 32.63, 33.08, 33.53, 33.53, 33.08, 33.08, 32.63, 32.63, 32.63, 32.19, 32.19, 32.19, 32.19, 32.63, 32.19, 30.84, 30.4, 32.19, 32.63, 32.63, 32.63, 32.19, 32.19, 32.19, 31.74, 31.29, 30.84, 30.84, 30.4, 29.95, 29.5, 29.06, 28.61, 28.16, 27.72, 28.16, 28.61, 29.06, 29.06, 28.61, 28.61, 29.06, 29.06, 28.61, 29.5, 29.95, 29.5, 29.06, 29.5, 29.5, 29.06, 29.06, 29.06, 28.61, 28.61, 28.61, 25.48, 25.48, 25.48, 25.93, 25.93, 26.37, 26.37, 26.82, 26.82, 26.82, 27.27, 27.27, 27.72, 27.72, 27.72, 28.16, 28.16, 28.16, 28.61, 28.61, 28.61, 28.61, 28.61, 28.61, 28.61, 28.61, 29.06, 29.06, 29.06, 29.06, 29.5, 29.5, 29.95, 30.4, 30.84, 30.84, 31.29, 31.29, 31.74, 31.74, 31.74, 32.19, 32.63, 33.08, 33.08, 33.53, 33.08, 32.63, 32.63, 32.63, 32.19, 31.74, 32.19, 32.19, 32.19, 32.63, 32.19, 30.84, 30.4, 31.74, 32.63, 32.63, 32.63, 32.19, 32.19, 32.19, 31.74, 31.74, 31.74, 31.29, 30.84, 29.95, 29.06, 27.72, 27.27, 27.72, 28.16, 29.06, 29.5, 29.06, 28.61, 28.61, 28.61, 29.06, 29.06, 29.06, 29.06, 29.06, 29.06, 29.06, 29.06, 29.5, 29.5, 29.06, 29.06, 29.06, 28.61, 28.61, 25.48, 25.48, 25.48, 25.93, 25.93, 26.37, 26.37, 26.37, 26.82, 26.82, 27.27, 27.27, 27.27, 27.72, 27.72, 27.72, 28.16, 28.16, 28.16, 28.16, 28.61, 28.61, 28.61, 28.61, 28.61, 28.61, 28.61, 28.61, 29.06, 29.06, 29.06, 29.5, 29.5, 29.95, 30.4, 30.84, 30.84, 30.84, 31.29, 31.29, 31.29, 31.74, 32.63, 33.08, 33.08, 33.08, 33.08, 32.63, 32.63, 32.63, 32.19, 31.74, 32.19, 32.19, 32.19, 32.19, 32.19, 31.29, 30.84, 31.29, 32.19, 32.19, 32.19, 32.63, 32.63, 32.19, 31.74, 32.19, 32.19, 32.19, 31.74, 30.4, 28.16, 25.48, 25.03, 26.37, 28.61, 29.95, 29.95, 29.5, 28.61, 28.61, 28.61, 29.06, 29.06, 29.06, 28.61, 28.61, 28.61, 28.61, 28.61, 29.95, 29.06, 29.06, 29.06, 29.5, 29.06, 29.06, 25.48, 25.48, 25.48, 25.93, 25.93, 26.37, 26.37, 26.37, 26.82, 26.82, 27.27, 27.27, 27.27, 27.72, 27.72, 27.72, 27.72, 28.16, 28.16, 28.16, 28.16, 28.16, 28.16, 28.16, 28.16, 28.16, 28.61, 28.61, 28.61, 28.61, 29.06, 29.06, 29.5, 29.5, 29.95, 30.4, 30.4, 30.4, 30.4, 30.84, 31.29, 31.74, 32.19, 32.63, 32.63, 33.08, 33.08, 32.63, 32.63, 32.19, 32.19, 32.19, 32.19, 32.19, 32.19, 32.19, 31.74, 31.74, 31.74, 31.74, 31.74, 31.74, 31.74, 32.19, 32.63, 32.19, 32.63, 32.63, 32.19, 32.63, 32.63, 30.84, 27.27, 24.59, 24.59, 26.37, 28.16, 29.5, 30.4, 29.95, 29.5, 29.5, 29.5, 29.5, 29.06, 29.06, 28.61, 28.61, 28.61, 28.61, 29.06, 29.95, 29.5, 28.61, 29.06, 29.5, 29.06, 29.06, 25.48, 25.48, 25.48, 25.93, 25.93, 26.37, 26.37, 26.37, 26.82, 26.82, 27.27, 27.27, 27.27, 27.72, 27.72, 27.72, 27.72, 28.16, 28.16, 28.16, 28.16, 28.16, 28.16, 28.16, 28.16, 28.16, 28.16, 28.61, 28.61, 28.61, 29.06, 29.06, 29.06, 29.5, 29.5, 29.95, 29.95, 29.95, 30.4, 30.84, 31.29, 31.74, 31.74, 32.19, 32.63, 33.08, 33.08, 32.63, 32.63, 32.19, 32.63, 32.63, 32.63, 32.63, 32.19, 32.19, 32.19, 32.19, 32.19, 32.19, 31.74, 31.74, 31.74, 32.19, 32.19, 32.63, 32.63, 33.08, 33.08, 33.08, 32.63, 30.84, 27.72, 25.93, 25.93, 26.82, 27.27, 28.16, 29.5, 30.84, 30.84, 30.84, 31.29, 29.95, 29.5, 29.5, 29.5, 29.06, 29.06, 29.06, 29.06, 29.5, 29.5, 29.06, 29.06, 29.5, 29.06, 29.06, 25.48, 25.48, 25.48, 25.93, 25.93, 26.37, 26.37, 26.37, 26.82, 26.82, 27.27, 27.27, 27.27, 27.72, 27.72, 27.72, 27.72, 28.16, 28.16, 28.16, 28.16, 28.16, 28.61, 28.16, 28.16, 28.16, 28.61, 28.61, 28.61, 28.61, 28.61, 29.06, 29.06, 29.06, 29.5, 29.5, 29.95, 29.95, 29.95, 30.4, 30.84, 31.29, 31.74, 32.19, 32.19, 32.63, 32.63, 32.63, 32.63, 32.63, 32.63, 32.63, 32.63, 32.63, 32.19, 32.19, 32.19, 32.19, 32.19, 32.19, 32.19, 32.19, 31.74, 31.74, 32.19, 32.63, 32.63, 33.08, 33.53, 33.53, 33.08, 31.74, 29.5, 27.72, 26.82, 26.37, 26.82, 27.27, 28.61, 30.4, 31.74, 32.19, 31.74, 30.84, 30.4, 30.4, 30.4, 30.4, 29.95, 29.95, 29.06, 29.06, 29.95, 29.95, 29.5, 29.5, 29.06, 29.06, 25.48, 25.48, 25.48, 25.93, 25.93, 26.37, 26.37, 26.82, 26.82, 26.82, 27.27, 27.27, 27.27, 27.27, 27.72, 27.72, 27.72, 28.16, 28.16, 27.72, 28.16, 28.61, 28.61, 28.16, 28.16, 28.16, 28.61, 28.61, 28.61, 28.61, 28.61, 28.61, 29.06, 29.06, 29.06, 29.5, 29.5, 29.95, 29.95, 29.95, 30.4, 30.84, 31.29, 31.74, 31.74, 32.19, 32.19, 32.19, 32.19, 32.19, 32.19, 32.19, 32.19, 32.19, 32.19, 32.19, 32.19, 32.19, 32.19, 32.19, 32.19, 32.19, 31.74, 31.74, 32.19, 32.63, 32.63, 33.08, 33.08, 33.97, 33.97, 32.63, 30.84, 28.61, 27.27, 26.82, 27.27, 28.61, 30.4, 30.84, 31.29, 31.29, 31.29, 31.74, 31.29, 31.29, 31.29, 30.84, 30.4, 30.4, 29.5, 28.61, 29.5, 29.95, 29.5, 29.06, 29.06, 29.06, 25.48, 25.48, 25.93, 25.93, 25.93, 26.37, 26.37, 26.82, 26.82, 26.82, 27.27, 27.27, 27.27, 27.27, 27.72, 27.72, 27.72, 28.16, 28.16, 27.72, 28.16, 28.61, 28.61, 28.16, 28.16, 28.16, 28.61, 28.61, 28.61, 28.61, 28.61, 28.61, 29.06, 29.06, 29.06, 29.5, 29.5, 29.5, 29.95, 29.95, 30.4, 30.84, 31.29, 31.29, 31.74, 32.19, 32.19, 32.19, 32.19, 32.63, 32.19, 32.19, 32.19, 32.19, 32.19, 32.19, 32.19, 32.19, 32.19, 32.19, 32.19, 32.19, 31.74, 31.74, 32.19, 32.63, 32.63, 33.08, 33.08, 33.97, 33.97, 33.08, 31.29, 28.61, 27.27, 26.82, 29.06, 30.4, 30.4, 29.95, 29.5, 29.06, 29.5, 30.4, 31.29, 31.74, 31.74, 30.84, 29.95, 29.95, 29.5, 29.06, 29.06, 29.5, 29.06, 28.61, 29.06, 29.06, 25.48, 25.48, 25.93, 25.93, 25.93, 26.37, 26.37, 26.82, 26.82, 26.82, 27.27, 27.27, 27.27, 27.27, 27.72, 27.72, 27.72, 27.72, 28.16, 28.16, 28.16, 28.61, 28.61, 28.16, 28.16, 28.16, 28.61, 28.61, 28.61, 28.61, 28.61, 29.06, 29.06, 29.06, 29.06, 29.5, 29.5, 29.5, 29.5, 29.95, 30.4, 30.4, 30.84, 31.29, 31.74, 31.74, 32.19, 32.19, 32.19, 32.63, 32.63, 32.63, 32.19, 32.19, 32.19, 32.19, 32.19, 32.19, 32.19, 32.19, 32.19, 31.74, 31.74, 31.74, 32.19, 32.19, 32.63, 33.08, 33.08, 33.97, 34.42, 33.08, 30.4, 27.72, 27.72, 27.72, 29.06, 29.95, 29.95, 29.06, 27.72, 27.27, 27.72, 28.16, 29.5, 30.84, 31.29, 30.84, 29.95, 29.5, 29.95, 29.06, 28.61, 28.61, 28.61, 28.16, 28.16, 28.16, 25.48, 25.48, 25.48, 25.93, 25.93, 26.37, 26.37, 26.82, 26.82, 26.82, 26.82, 27.27, 27.27, 27.27, 27.72, 27.72, 27.72, 27.72, 28.16, 28.16, 28.16, 28.16, 28.16, 28.16, 28.16, 28.61, 28.61, 28.61, 28.61, 28.61, 29.06, 29.06, 29.06, 29.06, 29.06, 29.5, 29.5, 29.5, 29.5, 29.95, 29.95, 30.4, 30.84, 31.29, 31.29, 31.74, 31.74, 32.19, 32.19, 32.19, 32.63, 32.63, 32.63, 32.63, 32.63, 32.63, 32.19, 31.74, 31.74, 32.63, 32.19, 31.74, 31.74, 31.74, 32.19, 32.19, 32.63, 33.08, 33.53, 33.97, 34.42, 33.53, 25.93, 26.82, 27.27, 27.72, 29.06, 29.5, 29.06, 28.16, 26.82, 25.93, 25.93, 25.93, 26.82, 28.16, 29.06, 29.5, 29.5, 29.5, 29.95, 29.5, 28.61, 28.16, 28.16, 27.72, 27.72, 27.72, 25.48, 25.48, 25.48, 25.48, 25.93, 26.37, 26.37, 26.37, 26.82, 26.82, 26.82, 27.27, 27.27, 27.27, 27.72, 27.72, 27.72, 27.72, 27.72, 28.16, 28.16, 28.16, 28.16, 28.16, 28.61, 28.61, 28.61, 28.61, 28.61, 29.06, 29.06, 29.06, 29.06, 29.06, 29.06, 29.5, 29.5, 29.5, 29.5, 29.95, 29.95, 30.4, 30.84, 30.84, 31.29, 31.74, 31.29, 31.74, 32.19, 32.19, 32.19, 32.63, 32.63, 32.63, 32.63, 32.63, 32.63, 32.19, 31.74, 32.19, 32.63, 32.19, 31.74, 31.74, 32.19, 31.74, 32.19, 33.08, 33.53, 34.42, 34.42, 31.29, 26.82, 25.93, 26.37, 27.27, 29.06, 29.5, 29.06, 28.61, 27.27, 26.37, 25.93, 25.48, 25.48, 25.48, 26.37, 28.16, 28.61, 29.06, 29.95, 29.5, 29.06, 28.61, 28.61, 28.16, 28.61, 28.61, 25.48, 25.48, 25.48, 25.48, 25.93, 25.93, 26.37, 26.37, 26.82, 26.82, 26.82, 27.27, 27.27, 27.27, 27.27, 27.72, 27.72, 27.72, 27.72, 27.72, 28.16, 28.16, 28.16, 28.16, 28.61, 28.61, 28.61, 28.61, 29.06, 29.06, 29.06, 29.06, 29.06, 29.06, 29.06, 29.06, 29.5, 29.5, 29.5, 29.5, 29.95, 30.4, 30.4, 30.84, 31.29, 31.29, 31.29, 31.74, 31.74, 32.19, 32.19, 32.19, 32.63, 32.63, 32.63, 32.63, 32.63, 32.19, 31.74, 31.29, 31.74, 32.63, 32.19, 31.74, 31.74, 32.19, 32.63, 33.08, 33.08, 34.42, 33.97, 32.63, 29.95, 26.82, 25.93, 26.82, 28.61, 29.95, 29.95, 29.5, 28.61, 28.16, 27.72, 27.27, 26.37, 25.93, 25.93, 26.82, 28.16, 28.61, 28.61, 29.95, 29.95, 29.95, 29.95, 29.5, 29.5, 29.5, 25.03, 25.03, 25.48, 25.48, 25.93, 25.93, 25.93, 26.37, 26.82, 26.82, 26.82, 26.82, 27.27, 27.27, 27.27, 27.72, 27.72, 27.72, 27.72, 27.72, 28.16, 28.16, 28.16, 28.16, 28.61, 28.61, 28.61, 28.61, 29.06, 29.06, 29.06, 29.06, 29.06, 29.06, 29.06, 29.06, 29.5, 29.5, 29.5, 29.5, 29.95, 30.4, 30.4, 30.84, 31.29, 31.29, 31.29, 31.74, 31.74, 31.74, 32.19, 32.19, 32.63, 32.63, 32.63, 32.63, 32.63, 32.63, 32.19, 31.74, 31.29, 32.19, 32.63, 32.19, 32.19, 32.63, 32.63, 33.08, 33.53, 33.97, 33.97, 33.53, 32.19, 29.5, 27.27, 26.37, 27.72, 29.5, 30.4, 30.4, 29.95, 29.95, 29.5, 29.5, 28.16, 27.27, 26.82, 26.82, 27.72, 28.16, 28.16, 29.5, 30.4, 31.29, 31.29, 31.29, 30.84, 30.84, 25.03, 25.03, 25.48, 25.48, 25.93, 25.93, 25.93, 26.37, 26.37, 26.82, 26.82, 26.82, 27.27, 27.27, 27.27, 27.27, 27.72, 27.72, 27.72, 27.72, 28.16, 28.16, 28.16, 28.16, 28.61, 28.61, 28.61, 28.61, 29.06, 29.06, 29.06, 29.06, 29.06, 29.06, 29.06, 29.06, 29.06, 29.5, 29.5, 29.5, 29.95, 29.95, 30.4, 30.84, 30.84, 31.29, 31.29, 31.29, 31.74, 31.74, 32.19, 32.19, 32.63, 32.63, 32.63, 32.63, 32.63, 32.63, 32.63, 32.19, 31.29, 31.29, 32.19, 32.63, 32.63, 33.08, 33.08, 33.08, 33.53, 33.53, 33.97, 33.97, 33.08, 31.74, 29.5, 26.82, 25.93, 28.16, 29.95, 30.4, 30.84, 30.4, 30.4, 30.4, 29.5, 28.61, 28.16, 27.72, 27.72, 27.72, 28.16, 27.27, 29.5, 31.29, 31.74, 31.74, 31.74, 31.74, 25.03, 25.03, 25.48, 25.48, 25.48, 25.93, 25.93, 26.37, 26.37, 26.82, 26.82, 26.82, 27.27, 27.27, 27.27, 27.27, 27.72, 27.72, 27.72, 27.72, 28.16, 28.16, 28.16, 28.16, 28.61, 28.61, 28.61, 28.61, 28.61, 29.06, 29.06, 29.06, 29.06, 29.06, 29.06, 29.06, 29.06, 29.06, 29.5, 29.5, 29.95, 29.95, 30.4, 30.4, 30.4, 30.84, 30.84, 31.29, 31.29, 31.74, 31.74, 32.19, 32.19, 32.63, 32.63, 32.63, 32.63, 32.63, 32.63, 32.19, 31.74, 31.29, 31.74, 32.63, 33.08, 33.53, 33.08, 33.53, 33.53, 33.53, 33.53, 33.53, 33.53, 32.63, 31.29, 28.16, 25.48, 25.93, 28.61, 30.4, 31.29, 30.84, 30.4, 30.4, 30.4, 29.95, 29.5, 28.61, 27.72, 27.72, 28.16, 27.72, 28.16, 29.95, 30.84, 31.74, 31.74, 31.74, 25.03, 25.03, 25.48, 25.48, 25.48, 25.93, 25.93, 25.93, 26.37, 26.37, 26.82, 26.82, 26.82, 27.27, 27.27, 27.27, 27.27, 27.72, 27.72, 27.72, 27.72, 28.16, 28.16, 28.16, 28.61, 28.61, 28.61, 28.61, 28.61, 29.06, 29.06, 29.06, 29.06, 29.06, 29.06, 29.06, 29.06, 29.06, 29.5, 29.5, 29.5, 29.95, 29.95, 29.95, 30.4, 30.4, 30.84, 31.29, 31.29, 31.74, 31.74, 32.19, 32.19, 32.63, 32.63, 32.63, 32.63, 32.63, 32.63, 32.63, 31.74, 31.29, 31.74, 32.63, 33.08, 33.53, 33.08, 33.53, 33.97, 33.97, 33.53, 33.08, 33.08, 33.08, 32.19, 30.4, 27.27, 25.03, 26.37, 30.4, 31.74, 31.74, 31.29, 30.4, 30.4, 30.84, 30.4, 29.06, 28.61, 28.61, 28.61, 28.16, 27.72, 28.16, 29.5, 30.4, 30.84, 30.84, 25.03, 25.03, 25.48, 25.48, 25.48, 25.93, 25.93, 25.93, 26.37, 26.37, 26.37, 26.82, 26.82, 27.27, 27.27, 27.27, 27.27, 27.72, 27.72, 27.72, 27.72, 28.16, 28.16, 28.16, 28.61, 28.61, 28.61, 28.61, 28.61, 28.61, 28.61, 29.06, 29.06, 29.06, 29.06, 29.06, 29.06, 29.06, 29.5, 29.5, 29.5, 29.95, 29.95, 30.4, 30.4, 29.95, 30.4, 31.29, 31.29, 31.29, 31.74, 31.74, 32.19, 32.19, 32.19, 32.63, 32.63, 32.63, 32.63, 32.63, 32.19, 31.29, 32.19, 33.08, 33.08, 33.53, 33.08, 33.08, 33.97, 33.97, 33.97, 33.53, 33.08, 32.63, 32.63, 30.84, 29.06, 26.82, 25.93, 28.61, 31.29, 32.19, 31.74, 30.84, 29.95, 29.95, 29.95, 29.95, 29.06, 29.06, 29.06, 28.61, 27.72, 27.72, 28.16, 28.61, 29.5, 29.5, 25.03, 25.03, 25.48, 25.48, 25.48, 25.93, 25.93, 25.93, 26.37, 26.37, 26.37, 26.82, 26.82, 27.27, 27.27, 27.27, 27.27, 27.72, 27.72, 27.72, 27.72, 28.16, 28.16, 28.16, 28.61, 28.61, 28.61, 28.61, 28.61, 28.61, 28.61, 28.61, 29.06, 29.06, 29.06, 29.06, 29.06, 29.06, 29.5, 29.5, 29.5, 29.5, 29.95, 29.95, 30.4, 29.95, 29.95, 30.84, 31.29, 31.29, 31.74, 31.74, 31.74, 32.19, 32.19, 32.63, 32.63, 32.63, 32.63, 32.63, 32.19, 31.74, 32.19, 32.63, 33.08, 33.97, 33.97, 33.08, 33.08, 33.53, 34.42, 34.42, 33.53, 32.19, 31.29, 30.4, 29.5, 28.61, 27.72, 27.27, 29.5, 31.29, 31.29, 30.4, 29.95, 29.06, 29.06, 29.5, 29.5, 29.5, 29.06, 28.61, 27.72, 27.27, 27.27, 27.27, 27.72, 27.72, 25.03, 25.03, 25.48, 25.48, 25.48, 25.93, 25.93, 25.93, 26.37, 26.37, 26.37, 26.82, 26.82, 27.27, 27.27, 27.27, 27.27, 27.72, 27.72, 27.72, 27.72, 28.16, 28.16, 28.16, 28.61, 28.61, 28.61, 28.61, 28.61, 28.61, 28.61, 28.61, 29.06, 29.06, 29.06, 29.06, 29.06, 29.06, 29.5, 29.5, 29.5, 29.5, 29.95, 29.95, 29.95, 29.95, 30.4, 30.84, 31.29, 31.29, 31.29, 31.74, 31.74, 32.19, 32.19, 32.19, 32.63, 32.63, 32.63, 32.63, 32.19, 32.19, 32.63, 33.08, 33.08, 33.53, 33.97, 33.53, 32.63, 32.63, 33.97, 34.87, 33.97, 32.19, 29.95, 29.06, 29.06, 29.06, 29.06, 27.72, 27.72, 29.06, 29.5, 29.95, 29.95, 29.5, 29.06, 29.06, 29.5, 29.5, 29.5, 29.06, 28.16, 27.27, 26.82, 26.37, 26.82, 26.82, 25.03, 25.03, 25.48, 25.48, 25.48, 25.93, 25.93, 26.37, 26.37, 26.37, 26.82, 26.82, 26.82, 26.82, 27.27, 27.27, 27.72, 27.72, 27.72, 27.72, 28.16, 28.16, 28.16, 28.16, 28.61, 28.61, 28.61, 28.61, 28.61, 28.61, 28.61, 28.61, 29.06, 29.06, 29.06, 29.06, 29.06, 29.06, 29.06, 29.5, 29.5, 29.5, 29.95, 29.95, 29.95, 30.4, 30.4, 30.84, 30.84, 31.29, 31.29, 31.74, 31.74, 31.74, 32.19, 32.19, 32.19, 32.63, 32.63, 32.63, 32.63, 32.63, 32.63, 33.08, 33.08, 33.08, 33.97, 33.97, 33.53, 33.08, 33.53, 34.87, 33.97, 32.63, 29.95, 28.61, 29.06, 29.06, 29.5, 29.06, 28.61, 28.16, 28.61, 29.5, 30.4, 30.4, 29.95, 29.5, 29.5, 29.95, 29.95, 29.95, 29.06, 28.16, 27.27, 26.37, 26.37, 26.37, 25.03, 25.03, 25.48, 25.48, 25.48, 25.93, 25.93, 26.37, 26.37, 26.37, 26.82, 26.82, 26.82, 27.27, 27.27, 27.27, 27.72, 27.72, 27.72, 27.72, 28.16, 28.16, 28.16, 28.16, 28.61, 28.61, 28.61, 28.61, 28.61, 28.61, 28.61, 28.61, 29.06, 29.06, 29.06, 29.06, 29.06, 29.06, 29.5, 29.5, 29.5, 29.5, 29.95, 29.95, 29.95, 29.95, 30.4, 30.4, 30.84, 31.29, 31.29, 31.74, 31.74, 31.74, 32.19, 32.19, 32.19, 32.19, 32.63, 32.63, 32.63, 32.63, 32.63, 32.63, 33.08, 33.08, 33.53, 33.97, 33.97, 33.97, 33.97, 34.42, 33.97, 33.08, 31.29, 29.95, 29.5, 29.5, 29.5, 29.95, 29.5, 29.06, 29.06, 29.95, 31.29, 31.74, 31.29, 30.4, 30.4, 30.4, 30.4, 30.84, 30.4, 29.95, 29.06, 26.82, 26.82, 26.82, 25.03, 25.03, 25.48, 25.48, 25.48, 25.93, 25.93, 26.37, 26.37, 26.37, 26.82, 26.82, 26.82, 27.27, 27.27, 27.72, 27.72, 27.72, 27.72, 28.16, 28.16, 28.16, 28.16, 28.16, 28.61, 28.61, 28.61, 28.61, 28.61, 28.61, 28.61, 28.61, 29.06, 29.06, 29.06, 29.06, 29.06, 29.06, 29.5, 29.5, 29.5, 29.5, 29.95, 29.95, 29.95, 29.95, 30.4, 30.4, 30.84, 31.29, 31.29, 31.74, 31.74, 31.74, 32.19, 32.19, 32.19, 32.19, 32.63, 32.63, 32.63, 33.08, 33.08, 32.63, 32.63, 33.08, 33.53, 33.53, 33.97, 33.97, 34.42, 34.42, 33.97, 33.08, 32.63, 31.29, 30.84, 29.95, 29.5, 29.95, 29.95, 30.4, 30.84, 31.29, 31.29, 31.74, 31.29, 30.84, 30.4, 30.4, 30.84, 31.29, 31.29, 30.84, 30.4, 29.5, 27.72, 27.72, 25.03, 25.03, 25.48, 25.48, 25.48, 25.93, 25.93, 26.37, 26.37, 26.37, 26.82, 26.82, 26.82, 27.27, 27.27, 27.27, 27.72, 27.72, 27.72, 28.16, 28.16, 28.16, 28.16, 28.16, 28.61, 28.61, 28.61, 28.61, 28.61, 28.61, 28.61, 28.61, 29.06, 29.06, 29.06, 29.06, 29.06, 29.5, 29.5, 29.5, 29.5, 29.5, 29.95, 29.95, 29.95, 29.95, 30.4, 30.4, 30.84, 30.84, 31.29, 31.74, 31.74, 31.74, 31.74, 32.19, 32.19, 32.19, 32.63, 32.63, 33.08, 33.08, 33.08, 32.63, 32.63, 33.08, 33.53, 33.53, 33.97, 33.97, 34.42, 34.42, 33.97, 33.08, 32.63, 32.19, 31.29, 29.95, 29.06, 29.06, 30.4, 31.29, 31.74, 31.74, 31.29, 30.84, 30.84, 30.84, 30.84, 30.4, 30.84, 30.84, 31.29, 31.29, 31.29, 30.84, 29.06, 29.06, 25.03, 25.03, 25.48, 25.48, 25.48, 25.93, 25.93, 26.37, 26.37, 26.37, 26.82, 26.82, 27.27, 27.27, 27.27, 27.72, 27.72, 27.72, 28.16, 28.16, 28.16, 28.16, 28.16, 28.16, 28.61, 28.61, 28.61, 28.61, 28.61, 28.61, 28.61, 29.06, 29.06, 29.06, 29.06, 29.06, 29.5, 29.5, 29.5, 29.5, 29.5, 29.5, 29.95, 29.95, 29.95, 29.95, 30.4, 30.4, 30.84, 30.84, 31.29, 31.29, 31.74, 31.74, 31.74, 32.19, 32.19, 32.19, 32.63, 32.63, 33.08, 33.08, 33.08, 33.08, 33.08, 33.53, 33.53, 33.53, 33.97, 34.42, 34.87, 34.87, 34.42, 33.53, 32.63, 32.19, 31.29, 29.95, 28.61, 28.61, 30.4, 31.29, 32.19, 32.19, 31.29, 30.84, 30.84, 30.84, 30.84, 30.84, 30.84, 30.84, 30.84, 31.29, 31.29, 31.29, 31.29, 29.95, 25.03, 25.03, 25.48, 25.48, 25.48, 25.93, 25.93, 26.37, 26.37, 26.37, 26.82, 26.82, 27.27, 27.27, 27.27, 27.72, 27.72, 28.16, 28.16, 28.16, 28.16, 28.16, 28.61, 28.61, 28.61, 28.61, 28.61, 28.61, 28.61, 28.61, 29.06, 29.06, 29.06, 29.06, 29.06, 29.06, 29.5, 29.5, 29.5, 29.5, 29.5, 29.95, 29.95, 29.95, 29.95, 29.95, 30.4, 30.4, 30.84, 30.84, 31.29, 31.29, 31.74, 31.74, 31.74, 32.19, 32.19, 32.19, 32.63, 32.63, 33.08, 33.08, 33.53, 33.53, 33.08, 33.53, 33.53, 33.53, 33.97, 34.42, 34.87, 35.32, 34.42, 33.53, 32.63, 32.19, 31.29, 29.95, 29.06, 29.06, 29.95, 30.84, 31.74, 32.19, 31.74, 31.29, 30.84, 30.84, 31.29, 31.29, 30.84, 30.84, 30.84, 31.29, 31.74, 32.19, 32.19, 31.29, 25.03, 25.03, 25.48, 25.48, 25.93, 25.93, 25.93, 26.37, 26.37, 26.82, 26.82, 27.27, 27.27, 27.27, 27.72, 27.72, 27.72, 28.16, 28.16, 28.16, 28.16, 28.61, 28.61, 28.61, 28.61, 28.61, 28.61, 28.61, 28.61, 29.06, 29.06, 29.06, 29.06, 29.06, 29.5, 29.5, 29.5, 29.5, 29.5, 29.5, 29.95, 29.95, 29.95, 29.95, 29.5, 29.95, 30.4, 30.84, 30.84, 30.84, 31.29, 31.29, 31.29, 31.74, 31.74, 32.19, 32.19, 32.63, 32.63, 32.63, 33.08, 33.08, 33.53, 33.53, 33.53, 33.53, 33.53, 33.97, 33.97, 34.42, 34.87, 35.32, 34.87, 33.97, 33.08, 32.19, 31.29, 29.95, 29.5, 29.5, 29.95, 30.84, 31.29, 32.19, 31.74, 31.29, 31.29, 31.29, 31.29, 31.74, 31.74, 31.29, 31.29, 31.74, 32.19, 32.63, 32.63, 32.19, 25.48, 25.48, 25.48, 25.48, 25.93, 25.93, 26.37, 26.37, 26.37, 26.82, 26.82, 27.27, 27.27, 27.72, 27.72, 27.72, 28.16, 28.16, 28.16, 28.16, 28.61, 28.61, 28.61, 28.61, 28.61, 28.61, 28.61, 29.06, 29.06, 29.06, 29.06, 29.06, 29.06, 29.5, 29.5, 29.5, 29.5, 29.5, 29.5, 29.95, 29.95, 29.95, 29.95, 30.4, 29.95, 29.95, 30.4, 30.84, 30.84, 30.84, 31.29, 31.29, 31.74, 31.74, 31.74, 32.19, 32.19, 32.63, 32.63, 33.08, 33.08, 33.53, 33.53, 33.53, 33.53, 33.53, 33.53, 33.97, 34.42, 34.42, 34.87, 34.87, 34.87, 34.87, 33.97, 33.08, 31.29, 29.95, 29.5, 29.95, 30.4, 30.84, 31.29, 31.74, 31.74, 31.29, 31.29, 31.74, 31.74, 31.74, 32.19, 32.19, 32.63, 32.63, 32.63, 33.08, 32.63, 32.63, 25.48, 25.48, 25.48, 25.93, 25.93, 25.93, 26.37, 26.37, 26.82, 26.82, 27.27, 27.27, 27.27, 27.72, 27.72, 27.72, 28.16, 28.16, 28.16, 28.61, 28.61, 28.61, 28.61, 28.61, 28.61, 29.06, 29.06, 29.06, 29.06, 29.06, 29.06, 29.5, 29.5, 29.5, 29.5, 29.5, 29.5, 29.95, 29.95, 29.95, 29.95, 29.95, 29.95, 30.4, 30.4, 30.4, 30.4, 30.84, 30.84, 30.84, 31.29, 31.29, 31.74, 31.74, 31.74, 32.19, 32.19, 32.63, 32.63, 33.08, 33.08, 33.53, 33.53, 33.53, 33.97, 33.97, 33.97, 34.42, 34.42, 34.87, 34.87, 34.87, 34.87, 34.87, 34.42, 33.97, 32.63, 30.4, 29.5, 29.95, 29.95, 30.84, 31.29, 31.29, 31.29, 31.29, 31.74, 31.74, 32.19, 32.19, 32.63, 33.08, 33.53, 33.53, 33.53, 33.08, 33.08, 33.08, 25.48, 25.48, 25.48, 25.93, 25.93, 26.37, 26.37, 26.82, 26.82, 27.27, 27.27, 27.27, 27.72, 27.72, 27.72, 28.16, 28.16, 28.16, 28.61, 28.61, 28.61, 28.61, 29.06, 29.06, 29.06, 29.06, 29.06, 29.06, 29.06, 29.5, 29.5, 29.5, 29.5, 29.5, 29.5, 29.95, 29.95, 29.95, 29.95, 29.95, 29.95, 30.4, 30.4, 30.4, 30.4, 30.4, 30.84, 30.84, 30.84, 31.29, 31.29, 31.29, 31.74, 31.74, 31.74, 32.19, 32.63, 32.63, 32.63, 33.08, 33.08, 33.53, 33.53, 33.97, 33.97, 33.97, 34.42, 34.42, 34.42, 34.87, 34.42, 34.87, 35.32, 34.87, 34.87, 34.42, 33.53, 32.19, 30.84, 29.95, 29.95, 30.4, 31.29, 31.74, 31.74, 31.74, 31.74, 32.19, 32.63, 33.08, 33.53, 33.97, 34.42, 33.97, 33.53, 33.08, 33.08, 33.08, 25.48, 25.48, 25.93, 25.93, 25.93, 26.37, 26.37, 26.82, 26.82, 27.27, 27.27, 27.27, 27.72, 27.72, 28.16, 28.16, 28.16, 28.16, 28.61, 28.61, 28.61, 29.06, 29.06, 29.06, 29.06, 29.06, 29.06, 29.5, 29.5, 29.5, 29.5, 29.5, 29.95, 29.95, 29.95, 29.95, 29.95, 29.95, 29.95, 30.4, 30.4, 30.4, 30.4, 30.4, 30.4, 30.84, 30.84, 30.84, 31.29, 31.29, 31.29, 31.74, 31.74, 31.74, 32.19, 32.19, 32.63, 32.63, 33.08, 33.08, 33.08, 33.53, 33.53, 33.97, 33.97, 34.42, 34.42, 34.42, 34.87, 34.87, 34.42, 34.87, 35.32, 34.87, 34.87, 34.87, 34.42, 33.53, 32.63, 31.29, 30.4, 30.4, 31.29, 31.74, 32.19, 32.19, 32.19, 32.63, 33.08, 33.53, 33.97, 33.97, 33.97, 33.97, 33.53, 33.53, 33.53, 33.53, 25.48, 25.48, 25.93, 25.93, 26.37, 26.37, 26.82, 26.82, 26.82, 27.27, 27.27, 27.72, 27.72, 27.72, 28.16, 28.16, 28.16, 28.61, 28.61, 28.61, 29.06, 29.06, 29.06, 29.06, 29.06, 29.5, 29.5, 29.5, 29.5, 29.5, 29.95, 29.95, 29.95, 29.95, 29.95, 29.95, 29.95, 30.4, 30.4, 30.4, 30.4, 30.4, 30.4, 30.4, 30.84, 30.84, 30.84, 30.84, 31.29, 31.29, 31.29, 31.74, 31.74, 31.74, 32.19, 32.63, 32.63, 32.63, 33.08, 33.08, 33.53, 33.53, 33.97, 33.97, 34.42, 34.42, 34.42, 34.42, 34.87, 34.87, 34.87, 34.87, 34.87, 34.87, 34.87, 34.87, 34.42, 33.97, 33.53, 33.53, 32.19, 30.4, 30.4, 31.29, 31.74, 32.19, 32.63, 33.08, 33.53, 33.53, 33.53, 33.53, 33.53, 33.08, 33.53, 33.53, 33.53, 33.53, 25.93, 25.93, 25.93, 25.93, 26.37, 26.37, 26.82, 26.82, 27.27, 27.27, 27.27, 27.72, 27.72, 28.16, 28.16, 28.16, 28.61, 28.61, 28.61, 29.06, 29.06, 29.06, 29.06, 29.5, 29.5, 29.5, 29.5, 29.5, 29.95, 29.95, 29.95, 29.95, 29.95, 29.95, 29.95, 30.4, 30.4, 30.4, 30.4, 30.4, 30.4, 30.84, 30.84, 30.84, 30.84, 30.84, 31.29, 31.29, 31.29, 31.74, 31.74, 31.74, 31.74, 32.19, 32.19, 32.63, 32.63, 33.08, 33.08, 33.08, 33.53, 33.53, 33.97, 33.97, 34.42, 34.42, 34.42, 34.87, 34.87, 34.87, 34.87, 34.87, 34.87, 34.87, 34.87, 34.87, 34.87, 34.42, 34.42, 33.97, 33.53, 31.29, 29.95, 29.95, 30.4, 31.74, 33.08, 33.53, 33.53, 33.08, 33.08, 33.08, 33.08, 33.08, 33.08, 33.08, 33.08, 33.08, 25.93, 25.93, 25.93, 26.37, 26.37, 26.82, 26.82, 26.82, 27.27, 27.27, 27.72, 27.72, 27.72, 28.16, 28.16, 28.16, 28.61, 28.61, 28.61, 29.06, 29.06, 29.06, 29.5, 29.5, 29.5, 29.5, 29.95, 29.95, 29.95, 29.95, 29.95, 29.95, 29.95, 30.4, 30.4, 30.4, 30.4, 30.4, 30.4, 30.84, 30.84, 30.84, 30.84, 30.84, 31.29, 31.29, 31.29, 31.29, 31.74, 31.74, 31.74, 32.19, 32.19, 32.19, 32.63, 32.63, 33.08, 33.08, 33.08, 33.53, 33.53, 33.97, 33.97, 34.42, 34.42, 34.42, 34.42, 34.87, 34.87, 34.87, 34.87, 35.32, 34.87, 34.87, 34.87, 34.87, 34.87, 34.87, 34.42, 34.42, 33.97, 32.63, 30.4, 28.61, 29.06, 31.29, 32.63, 33.53, 32.63, 32.63, 32.63, 33.08, 33.08, 33.08, 33.08, 33.08, 33.08, 33.08, 25.93, 25.93, 25.93, 26.37, 26.37, 26.82, 26.82, 26.82, 27.27, 27.27, 27.72, 27.72, 27.72, 28.16, 28.16, 28.61, 28.61, 28.61, 29.06, 29.06, 29.06, 29.5, 29.5, 29.5, 29.5, 29.95, 29.95, 29.95, 29.95, 29.95, 29.95, 30.4, 30.4, 30.4, 30.4, 30.4, 30.4, 30.84, 30.84, 30.84, 30.84, 30.84, 31.29, 31.29, 31.29, 31.29, 31.74, 31.74, 31.74, 32.19, 32.19, 32.19, 32.19, 32.63, 32.63, 33.08, 33.08, 33.08, 33.53, 33.53, 33.97, 33.97, 33.97, 34.42, 34.42, 34.42, 34.87, 34.87, 34.87, 34.87, 34.87, 35.32, 34.87, 34.87, 34.87, 34.87, 34.87, 34.87, 34.87, 34.42, 33.97, 33.53, 32.19, 29.06, 28.16, 30.4, 32.63, 32.63, 32.19, 32.63, 33.08, 33.08, 33.08, 33.08, 33.08, 33.08, 33.08, 33.08, 25.93, 25.93, 26.37, 26.37, 26.37, 26.82, 26.82, 27.27, 27.27, 27.27, 27.72, 27.72, 28.16, 28.16, 28.16, 28.61, 28.61, 28.61, 29.06, 29.06, 29.06, 29.5, 29.5, 29.5, 29.95, 29.95, 29.95, 29.95, 29.95, 30.4, 30.4, 30.4, 30.4, 30.4, 30.4, 30.84, 30.84, 30.84, 30.84, 30.84, 31.29, 31.29, 31.29, 31.29, 31.74, 31.74, 31.74, 31.74, 32.19, 32.19, 32.19, 32.63, 32.63, 33.08, 33.08, 33.08, 33.08, 33.53, 33.53, 33.97, 33.97, 33.97, 34.42, 34.42, 34.87, 34.87, 34.87, 34.87, 34.87, 34.87, 34.87, 35.32, 35.32, 34.87, 34.87, 35.32, 34.87, 34.87, 34.87, 34.42, 34.42, 33.97, 33.53, 30.4, 28.16, 31.29, 31.74, 32.63, 32.19, 32.19, 32.63, 33.53, 33.53, 33.08, 33.08, 33.08, 33.08, 33.08, 25.93, 25.93, 26.37, 26.37, 26.37, 26.82, 26.82, 27.27, 27.27, 27.27, 27.72, 27.72, 28.16, 28.16, 28.61, 28.61, 28.61, 29.06, 29.06, 29.06, 29.5, 29.5, 29.5, 29.95, 29.95, 29.95, 29.95, 30.4, 30.4, 30.4, 30.4, 30.4, 30.4, 30.84, 30.84, 30.84, 30.84, 30.84, 31.29, 31.29, 31.29, 31.29, 31.74, 31.74, 31.74, 31.74, 32.19, 32.19, 32.19, 32.19, 32.63, 32.63, 32.63, 33.08, 33.08, 33.53, 33.53, 33.53, 33.53, 33.97, 33.97, 34.42, 34.42, 34.42, 34.87, 34.87, 34.87, 34.87, 34.87, 34.87, 34.87, 34.87, 34.87, 35.32, 35.32, 34.87, 35.32, 34.87, 34.87, 34.87, 34.42, 33.97, 33.53, 31.74, 30.4, 30.84, 30.84, 32.19, 32.63, 32.19, 32.19, 33.08, 33.53, 33.08, 33.08, 33.08, 33.08, 33.08, 26.37, 26.37, 26.37, 26.37, 26.82, 26.82, 26.82, 27.27, 27.27, 27.72, 27.72, 27.72, 28.16, 28.16, 28.61, 28.61, 28.61, 29.06, 29.06, 29.06, 29.5, 29.5, 29.95, 29.95, 29.95, 29.95, 30.4, 30.4, 30.4, 30.4, 30.4, 30.84, 30.84, 30.84, 30.84, 30.84, 31.29, 31.29, 31.29, 31.29, 31.29, 31.74, 31.74, 31.74, 32.19, 32.19, 32.19, 32.19, 32.63, 32.63, 32.63, 32.63, 33.08, 33.08, 33.53, 33.53, 33.53, 33.53, 33.97, 33.97, 33.97, 34.42, 34.42, 34.42, 34.87, 34.87, 34.87, 34.87, 34.87, 34.87, 34.87, 34.87, 34.87, 34.87, 35.32, 35.32, 35.32, 35.32, 34.87, 34.87, 34.87, 34.42, 33.97, 29.06, 29.95, 30.4, 30.84, 31.74, 32.19, 32.19, 31.74, 32.63, 33.08, 33.08, 33.08, 33.08, 33.08, 33.08, 26.37, 26.37, 26.37, 26.37, 26.82, 26.82, 26.82, 27.27, 27.27, 27.72, 27.72, 27.72, 28.16, 28.16, 28.61, 28.61, 28.61, 29.06, 29.06, 29.5, 29.5, 29.5, 29.95, 29.95, 29.95, 29.95, 30.4, 30.4, 30.4, 30.4, 30.84, 30.84, 30.84, 30.84, 30.84, 31.29, 31.29, 31.29, 31.29, 31.74, 31.74, 31.74, 31.74, 32.19, 32.19, 32.19, 32.19, 32.63, 32.63, 32.63, 33.08, 33.08, 33.08, 33.53, 33.53, 33.53, 33.53, 33.97, 33.97, 33.97, 33.97, 34.42, 34.42, 34.42, 34.87, 34.87, 34.87, 34.87, 34.87, 34.87, 34.87, 34.87, 34.87, 34.87, 35.32, 35.32, 35.32, 34.87, 34.87, 34.87, 34.87, 34.42, 32.63, 29.5, 29.5, 29.95, 30.4, 31.29, 32.19, 32.19, 32.19, 32.63, 33.08, 33.08, 32.63, 32.63, 32.63, 32.63, 26.37, 26.37, 26.37, 26.37, 26.82, 26.82, 26.82, 27.27, 27.27, 27.72, 27.72, 28.16, 28.16, 28.16, 28.61, 28.61, 29.06, 29.06, 29.06, 29.5, 29.5, 29.5, 29.95, 29.95, 29.95, 30.4, 30.4, 30.4, 30.4, 30.84, 30.84, 30.84, 30.84, 31.29, 31.29, 31.29, 31.29, 31.29, 31.74, 31.74, 31.74, 32.19, 32.19, 32.19, 32.19, 32.19, 32.63, 32.63, 32.63, 32.63, 33.08, 33.08, 33.08, 33.53, 33.53, 33.53, 33.97, 33.97, 33.97, 33.97, 34.42, 34.42, 34.42, 34.42, 34.87, 34.87, 34.87, 34.87, 34.87, 34.87, 34.87, 34.87, 34.87, 34.87, 34.87, 34.87, 35.32, 34.87, 34.87, 34.87, 34.87, 34.87, 32.63, 30.4, 28.61, 29.5, 29.95, 30.84, 31.74, 32.63, 32.19, 32.63, 33.08, 33.08, 33.08, 33.08, 33.08, 33.08, 26.37, 26.37, 26.37, 26.37, 26.82, 26.82, 27.27, 27.27, 27.27, 27.72, 27.72, 28.16, 28.16, 28.16, 28.61, 28.61, 29.06, 29.06, 29.06, 29.5, 29.5, 29.5, 29.95, 29.95, 29.95, 30.4, 30.4, 30.4, 30.4, 30.84, 30.84, 30.84, 30.84, 31.29, 31.29, 31.29, 31.29, 31.74, 31.74, 31.74, 31.74, 32.19, 32.19, 32.19, 32.19, 32.63, 32.63, 32.63, 32.63, 33.08, 33.08, 33.08, 33.53, 33.53, 33.53, 33.53, 33.97, 33.97, 33.97, 33.97, 34.42, 34.42, 34.42, 34.42, 34.87, 34.87, 34.87, 34.87, 34.87, 34.87, 34.87, 34.87, 34.87, 34.87, 34.87, 34.87, 34.87, 34.87, 34.87, 34.87, 34.87, 33.97, 33.08, 31.29, 28.61, 29.06, 29.5, 29.95, 31.29, 32.63, 33.08, 33.08, 33.08, 33.53, 33.08, 33.08, 33.08, 33.08, 26.37, 26.37, 26.37, 26.37, 26.82, 26.82, 27.27, 27.27, 27.27, 27.72, 27.72, 27.72, 28.16, 28.16, 28.61, 28.61, 29.06, 29.06, 29.06, 29.5, 29.5, 29.5, 29.95, 29.95, 29.95, 30.4, 30.4, 30.4, 30.4, 30.84, 30.84, 30.84, 31.29, 31.29, 31.29, 31.29, 31.74, 31.74, 31.74, 31.74, 32.19, 32.19, 32.19, 32.19, 32.19, 32.63, 32.63, 32.63, 32.63, 33.08, 33.08, 33.08, 33.53, 33.53, 33.53, 33.53, 33.97, 33.97, 33.97, 33.97, 34.42, 34.42, 34.42, 34.42, 34.42, 34.87, 34.87, 34.87, 34.87, 34.87, 34.87, 34.87, 34.87, 34.87, 34.87, 34.87, 34.87, 35.32, 34.87, 34.87, 34.87, 33.97, 33.08, 32.19, 29.06, 28.61, 29.5, 29.95, 31.29, 32.63, 33.53, 33.53, 33.53, 33.97, 33.97, 33.97, 33.97, 33.97, 26.37, 26.37, 26.37, 26.82, 26.82, 26.82, 27.27, 27.27, 27.27, 27.72, 27.72, 27.72, 28.16, 28.16, 28.61, 28.61, 28.61, 29.06, 29.06, 29.5, 29.5, 29.5, 29.95, 29.95, 29.95, 30.4, 30.4, 30.4, 30.4, 30.84, 30.84, 30.84, 31.29, 31.29, 31.29, 31.29, 31.74, 31.74, 31.74, 31.74, 32.19, 32.19, 32.19, 32.19, 32.63, 32.63, 32.63, 32.63, 33.08, 33.08, 33.08, 33.53, 33.53, 33.53, 33.53, 33.53, 33.97, 33.97, 33.97, 33.97, 34.42, 34.42, 34.42, 34.42, 34.42, 34.42, 34.87, 34.87, 34.87, 34.87, 34.87, 34.87, 34.87, 34.87, 34.87, 34.42, 34.87, 34.87, 34.87, 34.87, 34.87, 34.42, 33.08, 32.63, 30.4, 29.06, 29.95, 30.4, 31.29, 32.63, 33.53, 33.97, 33.97, 34.42, 34.42, 34.42, 34.42, 34.42, 26.37, 26.37, 26.37, 26.82, 26.82, 26.82, 27.27, 27.27, 27.27, 27.72, 27.72, 27.72, 28.16, 28.16, 28.61, 28.61, 28.61, 29.06, 29.06, 29.06, 29.5, 29.5, 29.5, 29.95, 29.95, 30.4, 30.4, 30.4, 30.4, 30.84, 30.84, 30.84, 30.84, 31.29, 31.29, 31.29, 31.74, 31.74, 31.74, 31.74, 32.19, 32.19, 32.19, 32.19, 32.63, 32.63, 32.63, 32.63, 33.08, 33.08, 33.08, 33.53, 33.53, 33.53, 33.53, 33.53, 33.97, 33.97, 33.97, 33.97, 33.97, 34.42, 34.42, 34.42, 34.42, 34.42, 34.42, 34.42, 34.87, 34.87, 34.42, 34.42, 34.87, 34.87, 34.87, 34.42, 34.42, 34.42, 34.87, 34.87, 34.42, 34.42, 33.53, 32.63, 31.29, 29.95, 30.4, 31.29, 31.74, 32.63, 33.53, 33.97, 33.97, 34.42, 34.42, 34.42, 34.42, 34.42, 26.37, 26.37, 26.37, 26.82, 26.82, 26.82, 26.82, 27.27, 27.27, 27.72, 27.72, 27.72, 28.16, 28.16, 28.16, 28.61, 28.61, 29.06, 29.06, 29.06, 29.5, 29.5, 29.5, 29.95, 29.95, 29.95, 30.4, 30.4, 30.4, 30.84, 30.84, 30.84, 30.84, 31.29, 31.29, 31.29, 31.29, 31.74, 31.74, 31.74, 32.19, 32.19, 32.19, 32.19, 32.63, 32.63, 32.63, 32.63, 33.08, 33.08, 33.08, 33.53, 33.53, 33.53, 33.53, 33.53, 33.53, 33.97, 33.97, 33.97, 33.97, 33.97, 33.97, 34.42, 34.42, 34.42, 34.42, 34.42, 34.42, 34.42, 34.42, 34.42, 34.42, 34.42, 34.87, 34.42, 34.42, 34.42, 34.42, 34.42, 34.42, 34.42, 33.53, 33.08, 32.19, 30.84, 30.84, 31.29, 32.19, 33.08, 33.53, 33.97, 34.42, 34.42, 34.42, 34.42, 34.42, 34.42, 26.37, 26.37, 26.37, 26.82, 26.82, 26.82, 26.82, 27.27, 27.27, 27.72, 27.72, 27.72, 28.16, 28.16, 28.16, 28.61, 28.61, 28.61, 29.06, 29.06, 29.5, 29.5, 29.5, 29.95, 29.95, 29.95, 30.4, 30.4, 30.4, 30.84, 30.84, 30.84, 30.84, 31.29, 31.29, 31.29, 31.29, 31.74, 31.74, 31.74, 32.19, 32.19, 32.19, 32.19, 32.63, 32.63, 32.63, 32.63, 33.08, 33.08, 33.08, 33.08, 33.53, 33.53, 33.53, 33.53, 33.53, 33.53, 33.53, 33.97, 33.97, 33.97, 33.97, 33.97, 33.97, 34.42, 34.42, 34.42, 34.42, 34.42, 34.42, 34.42, 34.42, 34.42, 34.42, 34.42, 34.42, 34.42, 34.42, 34.42, 34.42, 33.97, 33.53, 33.08, 32.63, 31.74, 31.29, 31.29, 32.19, 33.08, 33.53, 34.42, 34.42, 34.42, 34.42, 34.42, 34.42, 34.42, 26.37, 26.37, 26.37, 26.82, 26.82, 26.82, 26.82, 27.27, 27.27, 27.72, 27.72, 27.72, 28.16, 28.16, 28.16, 28.61, 28.61, 28.61, 29.06, 29.06, 29.5, 29.5, 29.5, 29.95, 29.95, 29.95, 30.4, 30.4, 30.4, 30.84, 30.84, 30.84, 30.84, 31.29, 31.29, 31.29, 31.29, 31.74, 31.74, 31.74, 32.19, 32.19, 32.19, 32.19, 32.63, 32.63, 32.63, 32.63, 33.08, 33.08, 33.08, 33.08, 33.53, 33.53, 33.53, 33.53, 33.53, 33.53, 33.53, 33.97, 33.97, 33.97, 33.97, 33.97, 33.97, 34.42, 34.42, 34.42, 34.42, 34.42, 34.42, 34.42, 34.42, 34.42, 34.42, 34.42, 34.42, 34.42, 34.42, 34.42, 34.42, 33.97, 33.97, 33.53, 32.63, 32.19, 32.19, 31.74, 32.19, 33.08, 33.97, 34.42, 34.42, 34.42, 34.42, 34.42, 34.42, 34.42]}, {"header": {"parameterCategory": 1, "parameterNumber": 3, "dx": 0.06612293990616946, "dy": 0.0552356325346848, "nx": 98, "ny": 59, "la1": 35.046912555036876, "la2": 31.78801023549047, "lo1": -121.43107172385933, "lo2": -114.95102361305473, "refTime": "2026041309"}, "data": [-14.3, -13.86, -13.86, -13.86, -13.86, -13.86, -13.41, -13.41, -13.41, -12.96, -12.96, -12.96, -12.52, -12.52, -12.52, -12.07, -12.07, -11.62, -11.62, -11.18, -11.18, -10.73, -10.73, -10.28, -9.83, -9.39, -8.94, -8.49, -8.05, -8.05, -8.05, -7.6, -7.6, -7.15, -7.15, -6.71, -6.26, -5.81, -5.36, -4.92, -4.47, -4.02, -3.58, -3.13, -2.68, -2.68, -3.13, -3.13, -3.58, -4.02, -3.58, -3.58, -3.13, -3.13, -3.13, -2.68, -2.68, -2.24, -2.24, -1.79, -1.79, -1.34, -1.34, -1.34, -1.34, -1.34, -1.34, -1.34, -1.34, -0.89, -0.89, -0.45, 0.0, 0.0, 0.0, 0.0, 0.45, 0.89, 0.89, 1.34, 1.34, 1.79, 1.79, 2.24, 2.24, 2.68, 2.68, 2.68, 2.68, 3.13, 3.13, 2.68, 2.24, 1.79, 1.79, 1.79, 2.24, 2.24, -13.86, -13.86, -13.86, -13.41, -13.41, -13.41, -13.41, -13.41, -12.96, -12.96, -12.96, -12.52, -12.52, -12.52, -12.07, -12.07, -11.62, -11.62, -11.18, -11.18, -10.73, -10.28, -10.28, -10.28, -9.83, -9.39, -8.94, -8.49, -8.05, -8.05, -7.6, -7.6, -7.6, -7.15, -6.71, -6.71, -6.26, -5.81, -5.36, -4.92, -4.02, -4.02, -3.58, -3.13, -3.13, -3.58, -4.02, -4.02, -4.02, -4.02, -3.58, -3.13, -3.13, -3.13, -3.13, -3.13, -2.68, -2.68, -2.24, -2.24, -1.79, -1.79, -1.79, -1.79, -1.79, -1.79, -1.79, -1.34, -1.34, -0.89, -0.89, -0.45, 0.0, 0.0, 0.0, 0.0, 0.45, 0.89, 0.89, 1.34, 1.34, 1.79, 1.79, 2.24, 2.24, 2.68, 2.68, 2.68, 2.68, 3.13, 3.13, 2.68, 2.24, 1.79, 1.79, 1.79, 2.24, 2.24, -13.41, -13.41, -13.41, -13.41, -12.96, -12.96, -12.96, -12.96, -12.96, -12.52, -12.52, -12.52, -12.07, -12.07, -12.07, -11.62, -11.62, -11.18, -11.18, -10.73, -10.73, -10.28, -9.83, -9.83, -9.39, -9.39, -8.94, -8.49, -8.05, -7.6, -7.6, -7.15, -7.15, -7.15, -6.71, -6.26, -6.26, -5.81, -4.92, -4.47, -4.02, -3.58, -3.58, -4.02, -4.47, -4.47, -4.47, -4.02, -4.02, -3.58, -3.58, -3.13, -3.13, -3.13, -3.13, -3.13, -2.68, -2.68, -2.68, -2.24, -2.24, -2.24, -2.24, -2.24, -1.79, -1.79, -1.79, -1.34, -1.34, -1.34, -0.89, -0.89, -0.45, 0.0, 0.0, 0.0, 0.0, 0.45, 0.89, 0.89, 1.34, 1.34, 1.34, 1.79, 2.24, 2.24, 2.24, 2.68, 3.13, 3.13, 2.68, 2.24, 2.24, 2.24, 2.24, 2.24, 2.24, 2.24, -12.96, -12.96, -12.96, -12.96, -12.96, -12.96, -12.52, -12.52, -12.52, -12.52, -12.07, -12.07, -11.62, -11.62, -11.62, -11.18, -11.18, -11.18, -10.73, -10.73, -10.28, -10.28, -9.83, -9.39, -8.94, -8.94, -8.49, -8.05, -8.05, -7.6, -7.15, -7.15, -6.71, -6.71, -6.71, -6.26, -5.81, -5.36, -4.92, -4.47, -4.02, -4.47, -4.47, -4.92, -4.92, -4.47, -4.47, -4.02, -4.02, -3.58, -3.58, -3.13, -3.13, -3.13, -3.13, -3.13, -2.68, -2.68, -2.68, -2.68, -2.68, -2.68, -2.24, -2.24, -2.24, -1.79, -1.79, -1.34, -1.34, -1.34, -1.34, -0.89, -0.45, 0.0, 0.0, 0.0, 0.0, 0.0, 0.45, 0.89, 0.89, 0.89, 1.34, 1.34, 1.79, 1.79, 2.24, 2.24, 2.68, 2.68, 2.24, 2.24, 2.24, 2.68, 2.68, 2.68, 2.68, 2.24, -12.96, -12.52, -12.52, -12.52, -12.52, -12.52, -12.52, -12.07, -12.07, -12.07, -12.07, -11.62, -11.62, -11.18, -11.18, -11.18, -10.73, -10.73, -10.73, -10.28, -9.83, -9.83, -9.83, -9.39, -9.39, -8.94, -8.49, -8.05, -7.6, -7.15, -7.15, -6.71, -6.71, -6.26, -5.81, -5.81, -5.36, -4.92, -4.92, -4.92, -4.92, -5.36, -5.36, -4.92, -4.92, -4.47, -4.47, -4.02, -4.02, -3.58, -3.58, -3.13, -3.13, -3.13, -3.13, -3.13, -3.13, -3.13, -3.13, -2.68, -2.68, -2.68, -2.68, -2.68, -2.24, -1.79, -1.79, -1.34, -1.34, -1.34, -1.34, -1.34, -0.89, -0.45, 0.0, 0.0, 0.0, 0.0, 0.0, 0.45, 0.89, 0.89, 1.34, 1.34, 1.34, 1.34, 1.79, 2.24, 2.24, 2.24, 2.24, 2.24, 2.68, 2.68, 3.13, 3.13, 3.13, 2.68, -12.52, -12.52, -12.07, -12.07, -12.07, -12.07, -12.07, -12.07, -11.62, -11.62, -11.62, -11.18, -11.18, -11.18, -10.73, -10.73, -10.28, -10.28, -10.28, -9.83, -9.83, -9.39, -9.39, -8.94, -8.94, -8.49, -8.05, -7.6, -7.15, -7.15, -7.15, -6.71, -6.71, -6.26, -5.81, -5.81, -5.36, -5.36, -5.36, -5.36, -5.36, -5.36, -5.36, -4.92, -4.47, -4.47, -4.02, -4.02, -3.58, -3.58, -3.58, -3.13, -3.13, -3.13, -3.13, -3.13, -3.13, -3.13, -3.13, -3.13, -3.13, -3.13, -2.68, -2.68, -2.24, -2.24, -1.79, -1.79, -1.34, -1.34, -1.34, -1.34, -1.34, -0.89, 0.0, 0.0, 0.0, 0.0, 0.0, 0.0, 0.45, 0.45, 0.89, 0.89, 1.34, 1.34, 1.34, 1.79, 1.79, 1.79, 1.79, 2.24, 2.68, 2.68, 3.13, 3.13, 3.13, 2.68, -12.07, -12.07, -12.07, -12.07, -11.62, -11.62, -11.62, -11.62, -11.18, -11.18, -11.18, -11.18, -10.73, -10.73, -10.73, -10.28, -10.28, -9.83, -9.83, -9.39, -9.39, -9.39, -8.94, -8.49, -8.49, -8.49, -8.05, -7.6, -7.6, -7.15, -6.71, -6.71, -6.26, -5.81, -5.81, -5.36, -5.36, -5.36, -5.36, -5.81, -5.36, -4.92, -4.92, -4.47, -4.47, -4.02, -4.02, -4.02, -3.58, -3.58, -3.58, -3.58, -3.58, -3.58, -3.13, -3.13, -3.13, -3.13, -3.13, -3.13, -3.13, -3.13, -2.68, -2.68, -2.68, -2.24, -2.24, -1.79, -1.79, -1.79, -1.79, -1.79, -1.79, -1.34, -0.45, 0.0, 0.0, 0.0, 0.0, 0.0, 0.0, 0.0, 0.45, 0.45, 0.89, 0.89, 1.34, 1.34, 1.79, 1.79, 1.79, 2.24, 2.24, 2.68, 3.13, 3.13, 3.13, 2.68, -11.62, -11.62, -11.62, -11.62, -11.62, -11.18, -11.18, -11.18, -11.18, -10.73, -10.73, -10.73, -10.28, -10.28, -10.28, -9.83, -9.83, -9.83, -9.39, -9.39, -9.39, -8.94, -8.94, -8.94, -8.49, -8.49, -8.05, -8.05, -7.6, -7.15, -6.71, -6.26, -5.81, -5.36, -5.36, -5.81, -5.36, -5.36, -5.36, -5.36, -5.36, -4.92, -4.47, -4.47, -4.47, -4.02, -4.02, -4.02, -4.02, -4.02, -4.02, -3.58, -3.58, -3.58, -3.13, -3.13, -3.13, -3.13, -3.13, -3.13, -3.13, -3.13, -2.68, -2.68, -2.68, -2.68, -2.68, -2.24, -1.79, -1.79, -1.79, -1.79, -1.79, -1.34, -0.89, -0.89, 0.0, 0.0, 0.0, 0.0, 0.0, 0.0, 0.0, 0.0, 0.45, 0.45, 0.89, 1.34, 1.34, 1.79, 1.79, 2.24, 2.24, 2.24, 2.68, 3.13, 3.13, 2.68, -11.18, -11.18, -11.18, -11.18, -11.18, -10.73, -10.73, -10.73, -10.73, -10.73, -10.28, -10.28, -9.83, -9.83, -9.83, -9.83, -9.39, -9.39, -8.94, -8.94, -8.94, -8.49, -8.49, -8.49, -8.49, -8.05, -8.05, -8.05, -7.6, -7.15, -6.26, -5.81, -5.81, -5.81, -5.81, -5.81, -5.36, -5.36, -4.92, -4.92, -4.92, -4.92, -4.47, -4.47, -4.47, -4.47, -4.02, -4.02, -4.02, -4.02, -3.58, -3.58, -3.58, -3.58, -3.58, -3.58, -3.13, -3.13, -3.13, -3.13, -3.13, -3.13, -2.68, -2.68, -2.68, -2.68, -2.68, -2.68, -2.24, -2.24, -2.24, -1.79, -1.79, -1.34, -1.34, -1.34, -0.89, -0.45, 0.0, 0.0, 0.0, 0.0, 0.0, 0.0, 0.0, 0.45, 0.89, 1.34, 1.34, 1.34, 1.79, 1.79, 1.79, 2.24, 2.24, 2.68, 2.68, 2.68, -11.18, -10.73, -10.73, -10.73, -10.73, -10.73, -10.28, -10.28, -10.28, -10.28, -10.28, -9.83, -9.83, -9.83, -9.39, -9.39, -9.39, -8.94, -8.94, -8.94, -8.49, -8.49, -8.49, -8.05, -8.05, -8.05, -8.05, -7.6, -7.15, -6.71, -6.26, -6.26, -6.26, -6.26, -5.81, -5.36, -5.36, -4.92, -4.92, -4.92, -4.92, -4.47, -4.47, -4.47, -4.47, -4.47, -4.47, -4.02, -4.02, -4.02, -3.58, -3.58, -3.58, -3.58, -3.58, -3.58, -3.58, -3.13, -3.13, -3.13, -3.13, -2.68, -2.68, -2.68, -3.13, -3.13, -3.13, -3.13, -2.68, -2.24, -2.24, -1.79, -1.79, -1.79, -1.79, -1.79, -1.34, -0.89, -0.45, 0.0, 0.0, 0.45, 0.0, 0.0, 0.45, 0.45, 0.89, 0.89, 1.34, 1.34, 1.34, 1.34, 1.34, 1.79, 1.79, 2.24, 2.24, 2.24, -10.73, -10.73, -10.28, -10.28, -10.28, -10.28, -10.28, -10.28, -9.83, -9.83, -9.83, -9.83, -9.39, -9.39, -9.39, -9.39, -8.94, -8.94, -8.94, -8.49, -8.49, -8.49, -8.49, -8.05, -8.05, -7.6, -7.6, -7.15, -7.15, -6.71, -6.71, -6.71, -6.26, -5.81, -5.36, -5.36, -5.36, -4.92, -4.92, -4.92, -4.47, -4.47, -4.47, -4.47, -4.47, -4.47, -4.47, -4.47, -4.02, -4.02, -4.02, -3.58, -3.58, -3.58, -3.58, -3.58, -3.58, -3.13, -3.13, -2.68, -2.68, -2.68, -2.68, -3.13, -3.13, -3.13, -3.13, -3.13, -3.13, -2.68, -2.24, -2.24, -1.79, -1.79, -1.79, -1.79, -1.79, -1.34, -0.89, 0.0, 0.0, 0.45, 0.45, 0.45, 0.89, 0.89, 0.89, 0.89, 0.89, 0.89, 0.89, 0.89, 1.34, 1.34, 1.79, 1.79, 1.79, 1.79, -10.28, -10.28, -10.28, -10.28, -9.83, -9.83, -9.83, -9.83, -9.83, -9.39, -9.39, -9.39, -9.39, -9.39, -8.94, -8.94, -8.94, -8.94, -8.49, -8.49, -8.49, -8.49, -8.05, -8.05, -7.6, -7.6, -7.6, -7.15, -7.15, -6.71, -6.71, -6.71, -6.26, -5.81, -5.36, -5.36, -5.36, -5.36, -4.92, -4.47, -4.47, -4.02, -4.02, -4.02, -4.02, -4.02, -4.47, -4.47, -4.47, -4.02, -4.02, -4.02, -3.58, -3.58, -3.58, -3.58, -3.58, -3.13, -2.68, -2.68, -2.68, -3.13, -3.13, -3.13, -3.13, -3.13, -3.13, -3.13, -3.13, -2.68, -2.24, -2.24, -1.79, -1.79, -1.79, -1.79, -1.79, -1.34, -0.89, 0.0, 0.0, 0.0, 0.45, 0.89, 0.89, 0.89, 0.89, 0.89, 0.89, 0.89, 0.89, 1.34, 1.34, 1.34, 1.34, 1.34, 1.34, 1.34, -10.28, -10.28, -9.83, -9.83, -9.83, -9.83, -9.39, -9.39, -9.39, -9.39, -9.39, -9.39, -8.94, -8.94, -8.94, -8.94, -8.49, -8.49, -8.49, -8.49, -8.05, -8.05, -8.05, -7.6, -7.6, -7.6, -7.15, -7.15, -7.15, -6.71, -6.71, -6.26, -5.81, -5.81, -5.36, -5.36, -5.36, -4.92, -4.47, -4.47, -4.02, -4.02, -4.02, -4.02, -4.02, -4.02, -4.02, -4.02, -4.02, -4.02, -4.02, -4.02, -3.58, -3.58, -3.58, -3.13, -3.13, -3.58, -2.68, -2.24, -2.68, -3.13, -3.13, -3.13, -2.68, -2.68, -2.68, -3.13, -3.13, -2.68, -2.24, -2.24, -1.79, -1.34, -1.79, -1.79, -1.34, -0.89, -0.45, -0.45, -0.45, 0.0, 0.0, 0.0, 0.45, 0.89, 0.89, 0.89, 1.34, 1.34, 1.34, 1.34, 1.79, 1.34, 1.34, 1.34, 1.34, 1.34, -10.28, -9.83, -9.83, -9.83, -9.39, -9.39, -9.39, -9.39, -9.39, -8.94, -8.94, -8.94, -8.94, -8.94, -8.49, -8.49, -8.49, -8.49, -8.05, -8.05, -8.05, -7.6, -7.6, -7.6, -7.6, -7.15, -7.15, -7.15, -6.71, -6.71, -6.26, -6.26, -5.81, -5.81, -5.36, -5.36, -4.92, -4.92, -4.47, -4.02, -4.02, -3.58, -3.58, -3.58, -3.58, -4.02, -4.02, -4.02, -4.02, -4.02, -3.58, -3.58, -3.58, -3.58, -3.13, -3.13, -3.13, -3.13, -3.13, -2.68, -2.68, -3.13, -3.13, -3.13, -2.68, -2.68, -2.68, -2.68, -3.13, -3.13, -3.13, -2.24, -1.34, -1.34, -0.89, -0.89, -0.89, -0.89, -0.89, -0.89, -0.89, -0.89, -0.89, -0.45, 0.0, 0.0, 0.45, 0.89, 1.34, 1.79, 1.79, 1.79, 1.79, 1.79, 1.79, 1.79, 1.34, 1.34, -9.83, -9.83, -9.83, -9.39, -9.39, -9.39, -9.39, -8.94, -8.94, -8.94, -8.94, -8.94, -8.49, -8.49, -8.49, -8.49, -8.05, -8.05, -8.05, -7.6, -7.6, -7.6, -7.6, -7.15, -7.15, -7.15, -6.71, -6.71, -6.71, -6.26, -6.26, -6.26, -5.81, -5.81, -5.36, -5.36, -4.92, -4.47, -4.47, -4.02, -4.02, -3.58, -3.58, -3.58, -3.58, -3.58, -3.58, -3.58, -3.58, -3.58, -3.58, -3.58, -3.58, -3.58, -3.58, -3.13, -3.58, -3.13, -3.58, -3.13, -2.68, -2.24, -2.68, -2.68, -2.68, -2.68, -2.68, -2.68, -2.68, -3.13, -3.13, -2.68, -1.79, -0.89, 0.0, 0.0, -0.45, -0.89, -1.34, -1.79, -1.79, -1.34, -0.89, -0.89, -0.45, 0.0, 0.0, 0.45, 0.89, 1.34, 1.79, 1.79, 1.79, 1.79, 1.79, 1.79, 1.79, 1.79, -9.83, -9.83, -9.39, -9.39, -9.39, -8.94, -8.94, -8.94, -8.94, -8.94, -8.49, -8.49, -8.49, -8.49, -8.05, -8.05, -8.05, -7.6, -7.6, -7.6, -7.6, -7.15, -7.15, -7.15, -6.71, -6.71, -6.71, -6.26, -6.26, -6.26, -6.26, -5.81, -5.81, -5.36, -5.36, -4.92, -4.92, -4.47, -4.02, -4.02, -3.58, -3.58, -3.58, -3.58, -3.58, -3.13, -3.13, -3.13, -3.13, -3.13, -3.13, -3.13, -3.58, -3.58, -3.58, -3.58, -3.13, -3.13, -3.58, -3.58, -3.13, -2.68, -2.24, -2.24, -2.24, -2.24, -2.24, -2.68, -3.13, -3.13, -3.13, -2.68, -1.34, -0.89, -0.45, -0.45, -0.45, -0.89, -1.34, -1.34, -1.34, -1.34, -0.89, -0.45, -0.45, 0.0, 0.0, 0.0, 0.45, 0.89, 1.34, 1.79, 1.79, 1.79, 1.79, 1.79, 1.79, 1.79, -9.83, -9.39, -9.39, -9.39, -9.39, -8.94, -8.94, -8.94, -8.49, -8.49, -8.49, -8.49, -8.05, -8.05, -8.05, -7.6, -7.6, -7.6, -7.6, -7.15, -7.15, -7.15, -6.71, -6.71, -6.71, -6.26, -6.26, -6.26, -6.26, -5.81, -5.81, -5.81, -5.36, -5.36, -4.92, -4.92, -4.47, -4.02, -4.02, -3.58, -3.58, -3.58, -3.58, -3.13, -3.13, -3.13, -3.13, -3.13, -3.13, -3.13, -3.13, -3.13, -3.13, -3.13, -3.58, -3.13, -3.13, -3.13, -3.13, -3.58, -3.58, -3.13, -2.68, -2.68, -2.24, -2.24, -2.24, -2.68, -2.68, -3.13, -2.68, -1.34, -0.89, -1.79, -2.24, -1.79, -1.34, -0.45, 0.0, 0.0, -0.45, -0.45, -0.45, -0.45, -0.45, 0.0, 0.0, 0.0, 0.45, 0.89, 0.89, 1.34, 1.34, 1.34, 1.79, 1.79, 2.24, 2.24, -9.83, -9.39, -9.39, -9.39, -8.94, -8.94, -8.94, -8.94, -8.49, -8.49, -8.49, -8.05, -8.05, -8.05, -7.6, -7.6, -7.6, -7.15, -7.15, -7.15, -6.71, -6.71, -6.71, -6.71, -6.26, -6.26, -6.26, -5.81, -5.81, -5.81, -5.36, -5.36, -4.92, -4.92, -4.47, -4.47, -4.47, -4.02, -3.58, -3.58, -3.58, -3.58, -3.13, -3.13, -3.13, -2.68, -2.68, -2.68, -2.68, -2.68, -2.68, -3.13, -3.13, -3.13, -3.13, -3.13, -3.13, -3.13, -3.13, -3.13, -3.58, -3.13, -3.13, -2.68, -2.68, -2.24, -2.68, -2.68, -2.24, -2.24, -1.34, -0.45, -1.34, -3.13, -3.58, -3.13, -2.24, -0.89, 0.0, 0.45, 0.45, 0.0, 0.0, 0.0, 0.0, 0.0, 0.0, 0.0, 0.0, 0.45, 0.45, 0.89, 1.34, 1.34, 1.34, 1.79, 2.24, 2.24, -9.83, -9.39, -9.39, -9.39, -8.94, -8.94, -8.94, -8.49, -8.49, -8.49, -8.05, -8.05, -8.05, -7.6, -7.6, -7.6, -7.15, -7.15, -7.15, -7.15, -6.71, -6.71, -6.26, -6.26, -6.26, -6.26, -5.81, -5.81, -5.81, -5.36, -5.36, -4.92, -4.92, -4.47, -4.47, -4.47, -4.02, -4.02, -4.02, -3.58, -3.58, -3.58, -3.13, -3.13, -2.68, -2.68, -2.68, -2.68, -2.68, -2.68, -2.68, -2.68, -2.68, -2.68, -2.68, -2.68, -3.13, -3.13, -3.13, -3.13, -3.13, -3.13, -2.68, -2.68, -2.68, -2.24, -2.24, -2.24, -1.79, -0.89, -0.89, -0.89, -1.79, -3.13, -3.58, -3.58, -2.68, -1.79, -0.89, 0.0, 0.89, 1.34, 0.89, 0.89, 0.0, 0.0, 0.0, 0.0, 0.0, 0.0, 0.45, 0.45, 0.89, 1.34, 1.34, 1.79, 2.24, 2.24, -9.39, -9.39, -9.39, -8.94, -8.94, -8.94, -8.94, -8.49, -8.49, -8.49, -8.05, -8.05, -8.05, -7.6, -7.6, -7.6, -7.15, -7.15, -6.71, -6.71, -6.71, -6.71, -6.26, -6.26, -6.26, -5.81, -5.81, -5.81, -5.36, -5.36, -4.92, -4.92, -4.92, -4.47, -4.47, -4.02, -4.02, -4.02, -3.58, -3.58, -3.58, -3.13, -3.13, -3.13, -2.68, -2.68, -2.68, -2.68, -2.24, -2.68, -2.68, -2.68, -2.68, -2.68, -2.68, -2.68, -2.68, -2.68, -2.68, -2.68, -2.68, -2.68, -2.68, -2.68, -2.24, -2.24, -2.24, -2.24, -1.79, -0.89, -0.45, -0.45, -0.89, -2.24, -2.68, -3.13, -2.68, -2.24, -0.89, 0.0, 0.89, 1.79, 1.79, 1.79, 1.34, 0.89, 0.45, 0.45, 0.0, 0.0, 0.45, 0.45, 0.89, 1.34, 1.34, 1.79, 1.79, 1.79, -9.39, -9.39, -9.39, -8.94, -8.94, -8.94, -8.49, -8.49, -8.49, -8.49, -8.05, -8.05, -8.05, -7.6, -7.6, -7.15, -7.15, -7.15, -6.71, -6.71, -6.71, -6.26, -6.26, -6.26, -5.81, -5.81, -5.81, -5.36, -5.36, -5.36, -4.92, -4.92, -4.47, -4.47, -4.47, -4.02, -4.02, -3.58, -3.58, -3.58, -3.13, -3.13, -3.13, -2.68, -2.68, -2.68, -2.24, -2.24, -2.24, -2.24, -2.24, -2.24, -2.24, -2.24, -2.68, -2.68, -2.68, -2.24, -2.24, -2.68, -2.68, -2.68, -2.68, -2.24, -2.24, -2.24, -2.24, -1.79, -1.34, -0.89, 0.0, 0.45, 0.45, -0.45, -1.79, -2.68, -1.34, -0.89, -0.89, -0.45, 0.0, 0.45, 0.89, 1.34, 1.79, 1.79, 1.34, 1.34, 0.89, 0.45, 0.45, 0.45, 0.45, 0.89, 1.34, 1.79, 1.79, 1.79, -9.39, -9.39, -9.39, -8.94, -8.94, -8.94, -8.49, -8.49, -8.49, -8.05, -8.05, -8.05, -7.6, -7.6, -7.6, -7.15, -7.15, -7.15, -6.71, -6.71, -6.71, -6.26, -6.26, -5.81, -5.81, -5.81, -5.36, -5.36, -5.36, -4.92, -4.92, -4.92, -4.47, -4.47, -4.02, -4.02, -4.02, -3.58, -3.58, -3.58, -3.13, -3.13, -2.68, -2.68, -2.68, -2.68, -2.24, -2.24, -2.24, -2.24, -2.24, -2.24, -2.24, -2.24, -2.24, -2.24, -2.24, -2.24, -2.24, -2.24, -2.24, -2.24, -2.24, -2.24, -2.24, -1.79, -1.79, -1.34, -1.34, -1.34, -0.45, 0.0, 0.0, 0.0, -2.24, -1.34, -0.45, 0.0, 0.0, -0.45, -0.89, -0.89, 0.0, 0.0, 0.89, 1.79, 2.24, 2.24, 1.79, 0.89, 0.89, 0.89, 0.45, 0.89, 1.34, 1.34, 1.34, 1.34, -9.39, -9.39, -9.39, -8.94, -8.94, -8.49, -8.49, -8.49, -8.49, -8.05, -8.05, -8.05, -7.6, -7.6, -7.6, -7.15, -7.15, -7.15, -6.71, -6.71, -6.26, -6.26, -6.26, -5.81, -5.81, -5.81, -5.36, -5.36, -5.36, -4.92, -4.92, -4.92, -4.47, -4.47, -4.02, -4.02, -4.02, -3.58, -3.58, -3.13, -3.13, -3.13, -2.68, -2.68, -2.68, -2.68, -2.24, -2.24, -2.24, -2.24, -2.24, -2.24, -1.79, -1.79, -1.79, -2.24, -2.24, -2.24, -1.79, -1.79, -1.79, -1.79, -2.24, -1.79, -1.79, -1.79, -1.34, -1.34, -0.89, -0.89, 0.0, 0.0, -0.45, -0.89, -1.34, -0.89, 0.0, 0.0, 0.0, 0.0, -0.89, -0.89, -1.34, -0.89, 0.0, 0.89, 1.79, 2.24, 2.68, 2.68, 1.79, 1.34, 1.34, 1.34, 1.34, 0.89, 1.34, 1.34, -9.39, -9.39, -8.94, -8.94, -8.49, -8.49, -8.49, -8.49, -8.05, -8.05, -8.05, -7.6, -7.6, -7.6, -7.15, -7.15, -7.15, -6.71, -6.71, -6.71, -6.26, -6.26, -5.81, -5.81, -5.81, -5.36, -5.36, -5.36, -5.36, -4.92, -4.92, -4.47, -4.47, -4.47, -4.02, -4.02, -3.58, -3.58, -3.58, -3.13, -3.13, -3.13, -2.68, -2.68, -2.68, -2.24, -2.24, -2.24, -2.24, -1.79, -1.79, -1.79, -1.79, -1.79, -1.79, -1.79, -1.79, -1.79, -1.79, -1.79, -1.34, -1.34, -1.79, -1.79, -1.79, -1.34, -1.34, -0.89, -0.45, 0.0, 0.0, 1.34, -0.45, -2.24, -1.79, -0.89, 0.0, 0.0, 0.0, 0.0, -0.45, -0.45, -0.89, -0.89, -0.89, 0.0, 0.89, 1.79, 2.24, 2.68, 2.68, 2.68, 2.68, 2.24, 1.79, 1.79, 1.79, 1.79, -8.94, -8.94, -8.94, -8.94, -8.49, -8.49, -8.49, -8.05, -8.05, -8.05, -7.6, -7.6, -7.6, -7.15, -7.15, -7.15, -6.71, -6.71, -6.71, -6.26, -6.26, -6.26, -5.81, -5.81, -5.81, -5.36, -5.36, -5.36, -4.92, -4.92, -4.92, -4.47, -4.47, -4.47, -4.02, -4.02, -3.58, -3.58, -3.58, -3.13, -3.13, -3.13, -2.68, -2.68, -2.68, -2.24, -2.24, -2.24, -2.24, -1.79, -1.79, -1.79, -1.34, -1.34, -1.34, -1.34, -1.34, -1.34, -1.79, -1.79, -1.34, -0.89, -0.89, -1.34, -1.34, -1.34, -0.89, -0.89, -0.45, 0.45, 0.89, 1.79, 0.0, -2.68, -2.68, -1.34, -0.45, 0.0, 0.0, 0.0, 0.0, 0.0, -0.45, -0.45, -0.89, -0.45, 0.0, 0.89, 1.34, 1.79, 2.68, 3.58, 3.58, 3.13, 3.13, 2.68, 2.68, 2.68, -8.94, -8.94, -8.94, -8.49, -8.49, -8.49, -8.49, -8.05, -8.05, -7.6, -7.6, -7.6, -7.15, -7.15, -7.15, -6.71, -6.71, -6.71, -6.26, -6.26, -6.26, -5.81, -5.81, -5.81, -5.81, -5.36, -5.36, -5.36, -4.92, -4.92, -4.92, -4.47, -4.47, -4.47, -4.02, -4.02, -3.58, -3.58, -3.58, -3.13, -3.13, -3.13, -2.68, -2.68, -2.68, -2.24, -2.24, -2.24, -1.79, -1.79, -1.79, -1.34, -1.34, -1.34, -1.34, -1.34, -1.34, -0.89, -0.89, -1.34, -1.34, -0.89, -0.89, -0.89, -0.89, -0.89, -0.89, -0.89, 0.0, 0.0, 0.89, 1.34, 0.89, -1.34, -2.68, -1.79, -0.89, -0.45, 0.0, 0.0, 0.0, 0.0, 0.0, -0.45, -0.89, -0.89, -0.45, 0.0, 0.45, 1.34, 1.79, 3.58, 3.58, 3.58, 3.58, 3.58, 3.13, 3.13, -8.94, -8.94, -8.49, -8.49, -8.49, -8.05, -8.05, -8.05, -7.6, -7.6, -7.6, -7.15, -7.15, -7.15, -6.71, -6.71, -6.71, -6.26, -6.26, -6.26, -5.81, -5.81, -5.81, -5.81, -5.36, -5.36, -5.36, -4.92, -4.92, -4.92, -4.47, -4.47, -4.47, -4.02, -4.02, -3.58, -3.58, -3.58, -3.13, -3.13, -3.13, -3.13, -2.68, -2.68, -2.68, -2.24, -2.24, -1.79, -1.79, -1.79, -1.79, -1.34, -1.34, -1.34, -0.89, -0.89, -0.89, -0.89, -0.89, -0.89, -0.89, -0.89, -0.45, -0.45, -0.45, -0.45, -0.45, -0.45, 0.0, 0.0, 0.89, 1.34, 1.34, 0.45, -1.34, -2.24, -1.34, -0.45, -0.45, 0.0, 0.0, 0.0, 0.0, 0.0, -0.45, -0.45, -0.45, 0.0, 0.0, 0.45, 0.89, 1.34, 3.13, 3.58, 3.58, 3.58, 3.58, 3.58, -8.49, -8.49, -8.49, -8.49, -8.05, -8.05, -8.05, -7.6, -7.6, -7.6, -7.15, -7.15, -7.15, -6.71, -6.71, -6.71, -6.71, -6.26, -6.26, -6.26, -5.81, -5.81, -5.81, -5.36, -5.36, -5.36, -4.92, -4.92, -4.92, -4.47, -4.47, -4.47, -4.02, -4.02, -4.02, -3.58, -3.58, -3.58, -3.13, -3.13, -3.13, -2.68, -2.68, -2.68, -2.24, -2.24, -1.79, -1.79, -1.79, -1.79, -1.34, -1.34, -1.34, -0.89, -0.89, -0.89, -0.45, -0.45, -0.45, -0.45, -0.45, -0.45, -0.45, -0.45, -0.45, 0.0, 0.0, 0.0, 0.0, 0.45, 0.89, 1.34, 1.79, 1.34, 0.0, -1.34, -2.24, -1.34, -0.45, 0.0, 0.45, 0.45, 0.0, 0.0, 0.0, 0.0, 0.0, 0.0, 0.0, 0.0, 0.45, 0.89, 2.24, 2.68, 3.13, 3.58, 3.58, 3.58, -8.49, -8.49, -8.49, -8.05, -8.05, -8.05, -7.6, -7.6, -7.6, -7.15, -7.15, -7.15, -6.71, -6.71, -6.71, -6.26, -6.26, -6.26, -6.26, -5.81, -5.81, -5.81, -5.36, -5.36, -5.36, -4.92, -4.92, -4.92, -4.47, -4.47, -4.47, -4.02, -4.02, -4.02, -3.58, -3.58, -3.58, -3.13, -3.13, -3.13, -2.68, -2.68, -2.68, -2.24, -2.24, -1.79, -1.79, -1.79, -1.34, -1.34, -1.34, -1.34, -0.89, -0.89, -0.89, -0.45, -0.45, -0.45, -0.45, 0.0, 0.0, -0.45, -0.45, 0.0, 0.0, 0.0, 0.0, 0.45, 0.45, 0.89, 0.89, 0.89, 1.34, 1.79, 1.34, 0.89, -1.34, -2.68, -1.34, 0.45, 1.34, 0.89, 0.45, 0.45, 0.45, 0.45, 0.45, 0.0, 0.0, 0.0, 0.0, 0.0, 0.45, 1.79, 2.68, 3.13, 3.58, 3.58, -8.49, -8.49, -8.05, -8.05, -8.05, -7.6, -7.6, -7.6, -7.15, -7.15, -7.15, -6.71, -6.71, -6.71, -6.26, -6.26, -6.26, -6.26, -5.81, -5.81, -5.81, -5.36, -5.36, -5.36, -4.92, -4.92, -4.92, -4.47, -4.47, -4.47, -4.02, -4.02, -3.58, -3.58, -3.58, -3.13, -3.13, -3.13, -2.68, -2.68, -2.68, -2.24, -2.24, -2.24, -1.79, -1.79, -1.79, -1.34, -1.34, -1.34, -1.34, -0.89, -0.89, -0.89, -0.45, -0.45, -0.45, -0.45, 0.0, 0.0, 0.0, 0.0, 0.0, 0.0, 0.0, 0.0, 0.0, 0.45, 0.89, 1.34, 1.34, 1.34, 1.34, 1.79, 2.24, 1.79, 0.0, -1.79, -1.79, 0.0, 1.34, 1.34, 0.89, 0.89, 0.89, 0.89, 0.89, 0.45, 0.0, 0.0, 0.0, 0.0, 0.0, 0.89, 1.34, 2.68, 3.13, 3.13, -8.05, -8.05, -8.05, -8.05, -7.6, -7.6, -7.6, -7.15, -7.15, -7.15, -6.71, -6.71, -6.71, -6.26, -6.26, -6.26, -6.26, -5.81, -5.81, -5.81, -5.36, -5.36, -5.36, -4.92, -4.92, -4.92, -4.47, -4.47, -4.47, -4.02, -4.02, -3.58, -3.58, -3.58, -3.13, -3.13, -3.13, -2.68, -2.68, -2.68, -2.24, -2.24, -2.24, -1.79, -1.79, -1.79, -1.79, -1.34, -1.34, -1.34, -0.89, -0.89, -0.89, -0.89, -0.45, -0.45, -0.45, 0.0, 0.0, 0.0, 0.0, 0.0, 0.0, 0.0, 0.0, 0.45, 0.45, 0.45, 0.45, 1.34, 1.79, 1.79, 1.34, 1.79, 2.24, 1.79, 0.89, 0.0, 0.0, -0.45, 0.45, 1.34, 1.34, 1.34, 1.34, 0.89, 0.89, 0.89, 0.45, 0.45, 0.0, 0.0, 0.45, 0.45, 0.89, 1.79, 2.68, 2.68, -8.05, -8.05, -8.05, -7.6, -7.6, -7.6, -7.15, -7.15, -7.15, -6.71, -6.71, -6.71, -6.71, -6.26, -6.26, -6.26, -5.81, -5.81, -5.81, -5.36, -5.36, -5.36, -5.36, -4.92, -4.92, -4.92, -4.47, -4.47, -4.02, -4.02, -4.02, -3.58, -3.58, -3.13, -3.13, -3.13, -2.68, -2.68, -2.68, -2.24, -2.24, -2.24, -1.79, -1.79, -1.79, -1.79, -1.34, -1.34, -1.34, -1.34, -0.89, -0.89, -0.89, -0.45, -0.45, -0.45, -0.45, 0.0, 0.0, 0.0, 0.0, 0.0, 0.0, 0.0, 0.45, 0.45, 0.89, 0.89, 0.89, 0.89, 1.34, 1.79, 1.79, 1.79, 1.79, 1.34, 0.45, 0.0, 0.89, 0.45, 0.0, 0.45, 1.34, 1.79, 1.79, 1.34, 0.89, 0.89, 0.89, 0.89, 1.34, 1.34, 1.34, 0.89, 0.89, 1.34, 1.79, 1.79, -8.05, -8.05, -7.6, -7.6, -7.6, -7.15, -7.15, -7.15, -6.71, -6.71, -6.71, -6.71, -6.26, -6.26, -6.26, -5.81, -5.81, -5.81, -5.36, -5.36, -5.36, -5.36, -4.92, -4.92, -4.92, -4.47, -4.47, -4.47, -4.02, -4.02, -3.58, -3.58, -3.58, -3.13, -3.13, -2.68, -2.68, -2.68, -2.24, -2.24, -2.24, -1.79, -1.79, -1.79, -1.79, -1.34, -1.34, -1.34, -1.34, -0.89, -0.89, -0.89, -0.89, -0.45, -0.45, -0.45, 0.0, 0.0, 0.0, 0.0, 0.0, 0.0, 0.0, 0.45, 0.45, 0.89, 0.89, 1.34, 1.34, 1.34, 1.34, 1.79, 2.24, 2.24, 1.79, 0.45, 0.0, 0.0, 0.45, 0.45, 0.0, 0.0, 0.89, 1.34, 1.79, 1.34, 1.34, 1.34, 1.34, 1.79, 1.79, 1.79, 1.79, 1.79, 1.34, 0.89, 1.34, 1.34, -7.6, -7.6, -7.6, -7.6, -7.15, -7.15, -7.15, -6.71, -6.71, -6.71, -6.71, -6.26, -6.26, -6.26, -5.81, -5.81, -5.81, -5.36, -5.36, -5.36, -5.36, -5.36, -4.92, -4.92, -4.92, -4.47, -4.47, -4.02, -4.02, -4.02, -3.58, -3.58, -3.13, -3.13, -3.13, -2.68, -2.68, -2.68, -2.24, -2.24, -2.24, -1.79, -1.79, -1.79, -1.34, -1.34, -1.34, -1.34, -0.89, -0.89, -0.89, -0.89, -0.89, -0.45, -0.45, -0.45, 0.0, 0.0, 0.0, 0.0, 0.0, 0.0, 0.45, 0.45, 0.45, 0.89, 0.89, 1.34, 1.34, 1.79, 1.34, 1.34, 2.24, 2.68, 2.24, 0.45, 0.0, 0.0, 0.45, 0.45, 0.0, 0.45, 0.89, 1.34, 1.34, 1.79, 1.34, 1.79, 1.79, 2.24, 2.24, 2.24, 2.24, 2.24, 1.79, 0.89, 0.89, 0.89, -7.6, -7.6, -7.6, -7.15, -7.15, -7.15, -7.15, -6.71, -6.71, -6.71, -6.26, -6.26, -6.26, -6.26, -5.81, -5.81, -5.36, -5.36, -5.36, -5.36, -5.36, -4.92, -4.92, -4.92, -4.47, -4.47, -4.47, -4.02, -4.02, -3.58, -3.58, -3.58, -3.13, -3.13, -2.68, -2.68, -2.68, -2.68, -2.24, -2.24, -2.24, -1.79, -1.79, -1.79, -1.34, -1.34, -1.34, -1.34, -0.89, -0.89, -0.89, -0.89, -0.45, -0.45, -0.45, 0.0, 0.0, 0.0, 0.0, 0.0, 0.0, 0.45, 0.45, 0.45, 0.89, 0.89, 1.34, 1.34, 1.79, 1.79, 1.79, 1.79, 2.24, 2.68, 2.68, 1.34, 0.0, 0.45, 0.89, 0.89, 0.89, 0.45, 0.89, 1.34, 1.34, 1.79, 1.79, 1.79, 1.79, 2.24, 2.24, 2.24, 2.68, 2.24, 2.24, 1.79, 1.34, 1.34, -7.6, -7.6, -7.15, -7.15, -7.15, -7.15, -6.71, -6.71, -6.71, -6.26, -6.26, -6.26, -6.26, -5.81, -5.81, -5.81, -5.36, -5.36, -5.36, -5.36, -4.92, -4.92, -4.92, -4.47, -4.47, -4.47, -4.02, -4.02, -4.02, -3.58, -3.58, -3.58, -3.13, -3.13, -2.68, -2.68, -2.68, -2.68, -2.24, -2.24, -2.24, -1.79, -1.79, -1.79, -1.34, -1.34, -1.34, -1.34, -0.89, -0.89, -0.89, -0.89, -0.45, -0.45, -0.45, 0.0, 0.0, 0.0, 0.0, 0.45, 0.45, 0.45, 0.45, 0.89, 0.89, 1.34, 1.34, 1.79, 1.79, 1.79, 1.79, 1.79, 2.24, 2.24, 2.24, 1.79, 0.89, 0.89, 1.34, 1.34, 1.34, 1.34, 1.79, 1.79, 1.79, 1.79, 1.79, 1.79, 1.79, 1.79, 2.24, 2.24, 2.68, 2.68, 2.68, 2.24, 1.34, 1.34, -7.15, -7.15, -7.15, -7.15, -7.15, -6.71, -6.71, -6.71, -6.26, -6.26, -6.26, -6.26, -5.81, -5.81, -5.81, -5.81, -5.36, -5.36, -5.36, -4.92, -4.92, -4.92, -4.47, -4.47, -4.47, -4.47, -4.02, -4.02, -4.02, -3.58, -3.58, -3.13, -3.13, -3.13, -2.68, -2.68, -2.68, -2.68, -2.24, -2.24, -2.24, -1.79, -1.79, -1.79, -1.79, -1.34, -1.34, -1.34, -0.89, -0.89, -0.89, -0.45, -0.45, -0.45, 0.0, 0.0, 0.0, 0.0, 0.0, 0.45, 0.45, 0.45, 0.89, 0.89, 0.89, 1.34, 1.34, 1.79, 1.79, 2.24, 2.24, 2.24, 2.24, 2.24, 2.24, 1.79, 1.79, 1.34, 1.34, 1.34, 1.34, 2.24, 2.68, 2.68, 2.68, 2.24, 2.24, 2.24, 2.24, 2.24, 2.24, 2.24, 2.68, 2.68, 2.68, 2.68, 2.68, 1.79, -7.15, -7.15, -7.15, -7.15, -6.71, -6.71, -6.71, -6.26, -6.26, -6.26, -6.26, -5.81, -5.81, -5.81, -5.81, -5.36, -5.36, -5.36, -4.92, -4.92, -4.92, -4.92, -4.47, -4.47, -4.47, -4.02, -4.02, -4.02, -3.58, -3.58, -3.58, -3.13, -3.13, -3.13, -3.13, -2.68, -2.68, -2.68, -2.24, -2.24, -2.24, -2.24, -1.79, -1.79, -1.79, -1.34, -1.34, -1.34, -0.89, -0.89, -0.89, -0.45, -0.45, -0.45, 0.0, 0.0, 0.0, 0.0, 0.0, 0.45, 0.45, 0.89, 0.89, 0.89, 1.34, 1.34, 1.34, 1.79, 1.79, 2.24, 2.24, 2.24, 2.24, 2.24, 1.79, 1.79, 1.79, 1.79, 1.34, 0.89, 1.34, 2.24, 2.68, 3.13, 3.13, 2.68, 2.68, 2.68, 2.68, 2.68, 2.24, 2.68, 2.68, 2.68, 3.13, 2.68, 2.68, 2.68, -7.15, -7.15, -6.71, -6.71, -6.71, -6.71, -6.26, -6.26, -6.26, -6.26, -5.81, -5.81, -5.81, -5.36, -5.36, -5.36, -5.36, -5.36, -4.92, -4.92, -4.92, -4.47, -4.47, -4.47, -4.47, -4.02, -4.02, -4.02, -3.58, -3.58, -3.58, -3.58, -3.13, -3.13, -3.13, -2.68, -2.68, -2.68, -2.68, -2.24, -2.24, -2.24, -1.79, -1.79, -1.79, -1.34, -1.34, -1.34, -0.89, -0.89, -0.89, -0.45, -0.45, -0.45, 0.0, 0.0, 0.0, 0.0, 0.45, 0.45, 0.45, 0.89, 0.89, 0.89, 1.34, 1.34, 1.79, 1.79, 1.79, 2.24, 2.24, 2.68, 2.68, 2.24, 1.79, 1.34, 1.79, 1.79, 1.34, 0.89, 1.34, 2.24, 2.68, 3.13, 3.13, 3.13, 3.13, 3.13, 3.13, 2.68, 2.68, 2.68, 2.68, 2.68, 3.13, 3.13, 3.13, 2.68, -6.71, -6.71, -6.71, -6.71, -6.71, -6.26, -6.26, -6.26, -6.26, -5.81, -5.81, -5.81, -5.36, -5.36, -5.36, -5.36, -4.92, -4.92, -4.92, -4.92, -4.47, -4.47, -4.47, -4.47, -4.02, -4.02, -4.02, -4.02, -3.58, -3.58, -3.58, -3.58, -3.13, -3.13, -3.13, -2.68, -2.68, -2.68, -2.68, -2.24, -2.24, -2.24, -1.79, -1.79, -1.79, -1.34, -1.34, -1.34, -0.89, -0.89, -0.89, -0.45, -0.45, 0.0, 0.0, 0.0, 0.0, 0.0, 0.45, 0.45, 0.45, 0.89, 0.89, 1.34, 1.34, 1.34, 1.79, 1.79, 1.79, 2.24, 2.24, 2.68, 2.68, 2.68, 2.24, 1.34, 1.34, 1.34, 0.89, 0.89, 1.34, 2.24, 2.68, 2.68, 2.68, 3.13, 3.13, 3.13, 3.13, 3.13, 3.13, 3.13, 3.13, 3.13, 3.13, 3.13, 3.58, 3.58, -6.71, -6.71, -6.71, -6.26, -6.26, -6.26, -6.26, -5.81, -5.81, -5.81, -5.36, -5.36, -5.36, -5.36, -5.36, -4.92, -4.92, -4.92, -4.92, -4.47, -4.47, -4.47, -4.47, -4.02, -4.02, -4.02, -4.02, -3.58, -3.58, -3.58, -3.58, -3.13, -3.13, -3.13, -3.13, -2.68, -2.68, -2.68, -2.68, -2.24, -2.24, -2.24, -1.79, -1.79, -1.79, -1.34, -1.34, -1.34, -0.89, -0.89, -0.89, -0.45, -0.45, 0.0, 0.0, 0.0, 0.0, 0.0, 0.45, 0.45, 0.89, 0.89, 0.89, 1.34, 1.34, 1.79, 1.79, 1.79, 2.24, 2.24, 2.24, 2.68, 2.68, 2.68, 2.68, 2.24, 1.79, 0.89, 0.89, 0.89, 0.89, 1.79, 2.24, 2.68, 2.68, 2.68, 2.68, 2.68, 3.13, 3.13, 3.13, 3.13, 3.13, 3.13, 3.58, 4.02, 4.02, 4.02, -6.26, -6.26, -6.26, -6.26, -6.26, -6.26, -5.81, -5.81, -5.36, -5.36, -5.36, -5.36, -5.36, -4.92, -4.92, -4.92, -4.92, -4.92, -4.47, -4.47, -4.47, -4.47, -4.02, -4.02, -4.02, -4.02, -4.02, -3.58, -3.58, -3.58, -3.58, -3.13, -3.13, -3.13, -3.13, -2.68, -2.68, -2.68, -2.24, -2.24, -2.24, -2.24, -1.79, -1.79, -1.79, -1.34, -1.34, -0.89, -0.89, -0.89, -0.45, -0.45, -0.45, 0.0, 0.0, 0.0, 0.0, 0.45, 0.45, 0.45, 0.89, 0.89, 1.34, 1.34, 1.34, 1.79, 1.79, 1.79, 2.24, 2.24, 2.24, 2.68, 3.13, 3.13, 3.13, 2.68, 2.24, 1.79, 0.89, 0.45, 0.89, 1.79, 2.24, 2.24, 2.24, 2.24, 2.24, 2.68, 2.68, 3.13, 3.13, 3.13, 3.58, 4.02, 4.47, 4.47, 4.47, 4.47, -6.26, -6.26, -6.26, -6.26, -5.81, -5.81, -5.36, -5.36, -5.36, -5.36, -5.36, -4.92, -4.92, -4.92, -4.92, -4.92, -4.47, -4.47, -4.47, -4.47, -4.02, -4.02, -4.02, -4.02, -4.02, -3.58, -3.58, -3.58, -3.58, -3.58, -3.13, -3.13, -3.13, -3.13, -2.68, -2.68, -2.68, -2.68, -2.24, -2.24, -2.24, -1.79, -1.79, -1.79, -1.34, -1.34, -0.89, -0.89, -0.89, -0.45, -0.45, -0.45, 0.0, 0.0, 0.0, 0.0, 0.0, 0.45, 0.45, 0.89, 0.89, 0.89, 1.34, 1.34, 1.79, 1.79, 1.79, 1.79, 2.24, 2.24, 2.68, 2.68, 2.68, 3.13, 3.13, 3.13, 2.68, 2.24, 1.79, 0.89, 1.34, 1.79, 1.79, 1.79, 1.79, 2.24, 2.24, 2.24, 2.68, 2.68, 2.68, 3.58, 4.02, 4.47, 4.47, 4.92, 4.92, 4.92, -6.26, -6.26, -5.81, -5.81, -5.81, -5.36, -5.36, -5.36, -5.36, -4.92, -4.92, -4.92, -4.92, -4.92, -4.47, -4.47, -4.47, -4.47, -4.47, -4.02, -4.02, -4.02, -4.02, -4.02, -3.58, -3.58, -3.58, -3.58, -3.58, -3.13, -3.13, -3.13, -3.13, -2.68, -2.68, -2.68, -2.24, -2.24, -2.24, -2.24, -1.79, -1.79, -1.34, -1.34, -1.34, -0.89, -0.89, -0.89, -0.45, -0.45, -0.45, 0.0, 0.0, 0.0, 0.0, 0.0, 0.45, 0.45, 0.89, 0.89, 0.89, 1.34, 1.34, 1.34, 1.79, 1.79, 1.79, 2.24, 2.24, 2.24, 2.68, 2.68, 2.68, 3.13, 3.13, 3.13, 3.13, 2.68, 2.68, 2.24, 1.79, 1.79, 1.79, 1.79, 1.79, 2.24, 2.24, 2.24, 2.68, 2.68, 3.13, 3.58, 4.02, 4.47, 4.47, 4.47, 4.47, 4.47, -5.81, -5.81, -5.81, -5.81, -5.36, -5.36, -5.36, -4.92, -4.92, -4.92, -4.92, -4.92, -4.47, -4.47, -4.47, -4.47, -4.47, -4.02, -4.02, -4.02, -4.02, -3.58, -3.58, -3.58, -3.58, -3.58, -3.58, -3.13, -3.13, -3.13, -3.13, -2.68, -2.68, -2.68, -2.68, -2.24, -2.24, -2.24, -1.79, -1.79, -1.79, -1.34, -1.34, -1.34, -0.89, -0.89, -0.89, -0.45, -0.45, -0.45, 0.0, 0.0, 0.0, 0.0, 0.0, 0.45, 0.45, 0.89, 0.89, 0.89, 1.34, 1.34, 1.34, 1.79, 1.79, 1.79, 2.24, 2.24, 2.24, 2.68, 2.68, 2.68, 3.13, 3.13, 3.13, 3.13, 3.13, 3.13, 3.13, 2.68, 2.68, 2.24, 1.34, 1.34, 1.79, 1.79, 2.24, 2.68, 2.68, 3.13, 3.58, 4.02, 4.02, 4.02, 4.47, 4.47, 4.47, 4.47, -5.81, -5.81, -5.81, -5.36, -5.36, -5.36, -4.92, -4.92, -4.92, -4.92, -4.47, -4.47, -4.47, -4.47, -4.47, -4.02, -4.02, -4.02, -4.02, -4.02, -3.58, -3.58, -3.58, -3.58, -3.58, -3.13, -3.13, -3.13, -3.13, -2.68, -2.68, -2.68, -2.68, -2.24, -2.24, -2.24, -1.79, -1.79, -1.79, -1.34, -1.34, -1.34, -0.89, -0.89, -0.89, -0.45, -0.45, -0.45, 0.0, 0.0, 0.0, 0.0, 0.0, 0.0, 0.45, 0.45, 0.89, 0.89, 0.89, 0.89, 1.34, 1.34, 1.79, 1.79, 1.79, 1.79, 2.24, 2.24, 2.68, 2.68, 2.68, 3.13, 3.13, 3.13, 3.13, 3.58, 3.58, 3.58, 3.13, 3.13, 2.68, 2.68, 1.79, 0.89, 1.34, 1.34, 2.24, 2.68, 3.13, 3.58, 3.58, 4.02, 4.02, 4.02, 4.02, 4.47, 4.47, 4.47, -5.81, -5.81, -5.36, -5.36, -5.36, -4.92, -4.92, -4.92, -4.47, -4.47, -4.47, -4.47, -4.47, -4.02, -4.02, -4.02, -4.02, -4.02, -3.58, -3.58, -3.58, -3.58, -3.13, -3.13, -3.13, -3.13, -3.13, -2.68, -2.68, -2.68, -2.68, -2.24, -2.24, -2.24, -1.79, -1.79, -1.79, -1.34, -1.34, -1.34, -0.89, -0.89, -0.89, -0.45, -0.45, -0.45, 0.0, 0.0, 0.0, 0.0, 0.0, 0.0, 0.0, 0.45, 0.45, 0.89, 0.89, 0.89, 0.89, 1.34, 1.34, 1.34, 1.79, 1.79, 1.79, 2.24, 2.24, 2.24, 2.68, 2.68, 3.13, 3.13, 3.13, 3.13, 3.58, 3.58, 3.58, 3.58, 3.13, 3.13, 3.13, 3.13, 2.24, 0.89, 0.89, 1.34, 2.68, 3.13, 3.13, 3.58, 3.58, 4.02, 4.02, 4.02, 4.47, 4.47, 4.47, 4.47, -5.36, -5.36, -5.36, -4.92, -4.92, -4.92, -4.92, -4.47, -4.47, -4.47, -4.47, -4.02, -4.02, -4.02, -4.02, -4.02, -3.58, -3.58, -3.58, -3.58, -3.13, -3.13, -3.13, -3.13, -2.68, -2.68, -2.68, -2.68, -2.24, -2.24, -2.24, -1.79, -1.79, -1.79, -1.79, -1.34, -1.34, -1.34, -0.89, -0.89, -0.89, -0.45, -0.45, -0.45, 0.0, 0.0, 0.0, 0.0, 0.0, 0.0, 0.0, 0.45, 0.45, 0.45, 0.89, 0.89, 0.89, 0.89, 1.34, 1.34, 1.34, 1.79, 1.79, 1.79, 2.24, 2.24, 2.24, 2.68, 2.68, 2.68, 3.13, 3.13, 3.58, 3.13, 3.58, 3.58, 3.58, 3.58, 3.58, 3.58, 3.58, 3.13, 3.13, 1.79, 0.45, 1.79, 2.68, 3.13, 3.13, 3.13, 3.58, 4.02, 4.02, 4.02, 4.47, 4.47, 4.47, 4.47, -5.36, -5.36, -4.92, -4.92, -4.92, -4.92, -4.47, -4.47, -4.47, -4.47, -4.02, -4.02, -4.02, -4.02, -3.58, -3.58, -3.58, -3.58, -3.13, -3.13, -3.13, -3.13, -2.68, -2.68, -2.68, -2.24, -2.24, -2.24, -2.24, -1.79, -1.79, -1.79, -1.34, -1.34, -1.34, -1.34, -0.89, -0.89, -0.89, -0.45, -0.45, -0.45, 0.0, 0.0, 0.0, 0.0, 0.0, 0.0, 0.0, 0.45, 0.45, 0.45, 0.45, 0.89, 0.89, 0.89, 0.89, 1.34, 1.34, 1.34, 1.34, 1.79, 1.79, 1.79, 2.24, 2.24, 2.24, 2.68, 2.68, 2.68, 3.13, 3.13, 3.13, 3.58, 3.58, 3.58, 3.58, 3.58, 3.58, 3.58, 3.58, 3.13, 3.13, 2.68, 1.34, 2.24, 2.68, 3.13, 3.13, 3.13, 3.58, 4.02, 4.02, 4.47, 4.47, 4.47, 4.47, 4.47, -4.92, -4.92, -4.92, -4.92, -4.92, -4.47, -4.47, -4.47, -4.47, -4.02, -4.02, -4.02, -3.58, -3.58, -3.58, -3.58, -3.13, -3.13, -3.13, -3.13, -2.68, -2.68, -2.68, -2.24, -2.24, -2.24, -1.79, -1.79, -1.79, -1.79, -1.34, -1.34, -1.34, -0.89, -0.89, -0.89, -0.89, -0.45, -0.45, -0.45, -0.45, 0.0, 0.0, 0.0, 0.0, 0.0, 0.0, 0.0, 0.45, 0.45, 0.45, 0.45, 0.89, 0.89, 0.89, 0.89, 1.34, 1.34, 1.34, 1.34, 1.79, 1.79, 1.79, 1.79, 2.24, 2.24, 2.68, 2.68, 2.68, 3.13, 3.13, 3.13, 3.13, 3.13, 3.58, 3.58, 3.58, 3.58, 3.58, 3.58, 3.58, 3.13, 2.68, 1.79, 1.79, 2.24, 2.68, 3.13, 3.58, 3.58, 3.58, 4.02, 4.02, 4.47, 4.47, 4.47, 4.47, 4.47, -4.92, -4.92, -4.92, -4.92, -4.47, -4.47, -4.47, -4.47, -4.02, -4.02, -4.02, -3.58, -3.58, -3.58, -3.13, -3.13, -3.13, -3.13, -2.68, -2.68, -2.68, -2.24, -2.24, -2.24, -1.79, -1.79, -1.79, -1.79, -1.34, -1.34, -1.34, -0.89, -0.89, -0.89, -0.89, -0.45, -0.45, -0.45, -0.45, 0.0, 0.0, 0.0, 0.0, 0.0, 0.0, 0.0, 0.0, 0.45, 0.45, 0.45, 0.45, 0.89, 0.89, 0.89, 0.89, 1.34, 1.34, 1.34, 1.34, 1.79, 1.79, 1.79, 1.79, 2.24, 2.24, 2.24, 2.68, 2.68, 2.68, 2.68, 3.13, 3.13, 3.13, 3.13, 3.13, 3.58, 3.58, 3.58, 3.58, 3.58, 3.58, 3.13, 3.13, 2.24, 1.79, 2.24, 2.68, 3.13, 3.58, 3.58, 4.02, 4.02, 4.02, 4.02, 4.47, 4.47, 4.47, 4.47, -4.92, -4.92, -4.47, -4.47, -4.47, -4.47, -4.02, -4.02, -4.02, -4.02, -3.58, -3.58, -3.58, -3.13, -3.13, -3.13, -2.68, -2.68, -2.68, -2.68, -2.24, -2.24, -2.24, -1.79, -1.79, -1.79, -1.34, -1.34, -1.34, -0.89, -0.89, -0.89, -0.89, -0.45, -0.45, -0.45, -0.45, 0.0, 0.0, 0.0, 0.0, 0.0, 0.0, 0.0, 0.0, 0.0, 0.45, 0.45, 0.45, 0.45, 0.89, 0.89, 0.89, 1.34, 1.34, 1.34, 1.34, 1.34, 1.79, 1.79, 1.79, 1.79, 2.24, 2.24, 2.24, 2.68, 2.68, 2.68, 2.68, 2.68, 3.13, 3.13, 3.13, 3.13, 3.13, 3.13, 3.58, 3.58, 3.58, 3.58, 3.58, 3.13, 3.13, 2.24, 1.34, 2.24, 2.68, 3.13, 3.58, 3.58, 4.02, 4.02, 4.02, 4.02, 4.02, 4.47, 4.47, 4.47, -4.47, -4.47, -4.47, -4.47, -4.47, -4.02, -4.02, -4.02, -4.02, -3.58, -3.58, -3.58, -3.13, -3.13, -3.13, -2.68, -2.68, -2.68, -2.24, -2.24, -2.24, -2.24, -1.79, -1.79, -1.34, -1.34, -1.34, -1.34, -0.89, -0.89, -0.89, -0.89, -0.45, -0.45, -0.45, 0.0, 0.0, 0.0, 0.0, 0.0, 0.0, 0.0, 0.0, 0.0, 0.45, 0.45, 0.45, 0.45, 0.89, 0.89, 0.89, 0.89, 1.34, 1.34, 1.34, 1.34, 1.34, 1.79, 1.79, 1.79, 1.79, 2.24, 2.24, 2.24, 2.24, 2.68, 2.68, 2.68, 2.68, 2.68, 2.68, 2.68, 3.13, 3.13, 3.13, 3.13, 3.13, 3.58, 3.58, 3.58, 3.13, 3.13, 3.13, 2.68, 1.79, 1.79, 2.68, 2.68, 3.13, 3.58, 4.02, 4.02, 4.02, 4.02, 4.02, 4.02, 4.02, 4.02, -4.47, -4.47, -4.02, -4.02, -4.02, -4.02, -4.02, -3.58, -3.58, -3.58, -3.58, -3.13, -3.13, -3.13, -2.68, -2.68, -2.68, -2.24, -2.24, -2.24, -2.24, -1.79, -1.79, -1.34, -1.34, -1.34, -1.34, -0.89, -0.89, -0.89, -0.45, -0.45, -0.45, -0.45, 0.0, 0.0, 0.0, 0.0, 0.0, 0.0, 0.0, 0.0, 0.45, 0.45, 0.45, 0.45, 0.89, 0.89, 0.89, 0.89, 0.89, 1.34, 1.34, 1.34, 1.34, 1.34, 1.79, 1.79, 1.79, 1.79, 2.24, 2.24, 2.24, 2.24, 2.24, 2.68, 2.68, 2.68, 2.68, 2.68, 2.68, 2.68, 3.13, 3.13, 3.13, 3.13, 3.13, 3.13, 3.58, 3.58, 3.58, 3.58, 3.13, 3.13, 2.24, 1.79, 2.24, 2.68, 3.13, 3.58, 3.58, 4.02, 4.02, 4.47, 4.47, 4.47, 4.47, 4.47, -4.02, -4.02, -4.02, -4.02, -4.02, -4.02, -3.58, -3.58, -3.58, -3.58, -3.13, -3.13, -3.13, -2.68, -2.68, -2.68, -2.68, -2.24, -2.24, -2.24, -1.79, -1.79, -1.79, -1.34, -1.34, -1.34, -0.89, -0.89, -0.89, -0.45, -0.45, -0.45, -0.45, 0.0, 0.0, 0.0, 0.0, 0.0, 0.0, 0.0, 0.45, 0.45, 0.45, 0.45, 0.89, 0.89, 0.89, 0.89, 0.89, 0.89, 1.34, 1.34, 1.34, 1.34, 1.34, 1.79, 1.79, 1.79, 1.79, 1.79, 2.24, 2.24, 2.24, 2.24, 2.24, 2.68, 2.68, 2.68, 2.68, 2.68, 2.68, 3.13, 3.13, 3.13, 3.13, 3.13, 3.13, 3.58, 3.58, 3.58, 3.58, 3.58, 3.58, 3.58, 2.68, 1.79, 2.24, 2.68, 3.13, 3.13, 3.58, 4.02, 4.47, 4.47, 4.47, 4.47, 4.47, 4.47, -4.02, -4.02, -4.02, -3.58, -3.58, -3.58, -3.58, -3.58, -3.58, -3.13, -3.13, -3.13, -3.13, -2.68, -2.68, -2.68, -2.24, -2.24, -2.24, -1.79, -1.79, -1.79, -1.34, -1.34, -1.34, -0.89, -0.89, -0.89, -0.45, -0.45, -0.45, -0.45, 0.0, 0.0, 0.0, 0.0, 0.0, 0.0, 0.0, 0.45, 0.45, 0.45, 0.45, 0.89, 0.89, 0.89, 0.89, 0.89, 0.89, 1.34, 1.34, 1.34, 1.34, 1.34, 1.79, 1.79, 1.79, 1.79, 1.79, 1.79, 2.24, 2.24, 2.24, 2.24, 2.68, 2.68, 2.68, 2.68, 2.68, 3.13, 3.13, 3.13, 3.13, 3.13, 3.13, 3.58, 3.58, 3.58, 4.02, 3.58, 3.58, 3.58, 3.58, 3.58, 3.13, 2.24, 2.24, 2.68, 3.13, 3.58, 3.58, 4.02, 4.47, 4.92, 4.92, 4.92, 4.92, 4.92, -3.58, -3.58, -3.58, -3.58, -3.58, -3.58, -3.58, -3.13, -3.13, -3.13, -3.13, -2.68, -2.68, -2.68, -2.68, -2.24, -2.24, -2.24, -1.79, -1.79, -1.79, -1.79, -1.34, -1.34, -0.89, -0.89, -0.89, -0.45, -0.45, -0.45, -0.45, 0.0, 0.0, 0.0, 0.0, 0.0, 0.0, 0.0, 0.45, 0.45, 0.45, 0.45, 0.45, 0.89, 0.89, 0.89, 0.89, 0.89, 0.89, 1.34, 1.34, 1.34, 1.34, 1.79, 1.79, 1.79, 1.79, 1.79, 1.79, 2.24, 2.24, 2.24, 2.24, 2.68, 2.68, 2.68, 2.68, 2.68, 3.13, 3.13, 3.13, 3.13, 3.58, 3.58, 3.58, 3.58, 3.58, 4.02, 4.02, 4.02, 4.02, 4.02, 4.02, 3.58, 3.58, 2.68, 2.68, 3.13, 3.58, 3.58, 4.02, 4.47, 4.92, 4.92, 4.92, 5.36, 5.36, 5.36, -3.58, -3.58, -3.58, -3.58, -3.58, -3.13, -3.13, -3.13, -3.13, -3.13, -2.68, -2.68, -2.68, -2.68, -2.24, -2.24, -2.24, -2.24, -1.79, -1.79, -1.79, -1.34, -1.34, -1.34, -0.89, -0.89, -0.89, -0.45, -0.45, -0.45, 0.0, 0.0, 0.0, 0.0, 0.0, 0.0, 0.0, 0.0, 0.45, 0.45, 0.45, 0.45, 0.45, 0.89, 0.89, 0.89, 0.89, 0.89, 0.89, 1.34, 1.34, 1.34, 1.34, 1.79, 1.79, 1.79, 1.79, 1.79, 2.24, 2.24, 2.24, 2.24, 2.68, 2.68, 2.68, 2.68, 3.13, 3.13, 3.13, 3.13, 3.58, 3.58, 3.58, 3.58, 3.58, 4.02, 4.02, 4.02, 4.02, 4.47, 4.47, 4.47, 4.47, 4.02, 4.02, 3.58, 2.68, 3.13, 3.58, 4.02, 4.47, 4.92, 5.36, 5.36, 5.36, 5.36, 5.36, 5.36, -3.58, -3.58, -3.58, -3.58, -3.58, -3.13, -3.13, -3.13, -3.13, -3.13, -2.68, -2.68, -2.68, -2.68, -2.24, -2.24, -2.24, -2.24, -1.79, -1.79, -1.79, -1.34, -1.34, -1.34, -0.89, -0.89, -0.89, -0.45, -0.45, -0.45, 0.0, 0.0, 0.0, 0.0, 0.0, 0.0, 0.0, 0.0, 0.45, 0.45, 0.45, 0.45, 0.45, 0.89, 0.89, 0.89, 0.89, 0.89, 0.89, 1.34, 1.34, 1.34, 1.34, 1.79, 1.79, 1.79, 1.79, 1.79, 2.24, 2.24, 2.24, 2.24, 2.68, 2.68, 2.68, 2.68, 3.13, 3.13, 3.13, 3.13, 3.58, 3.58, 3.58, 3.58, 3.58, 4.02, 4.02, 4.02, 4.02, 4.47, 4.47, 4.47, 4.47, 4.47, 4.02, 4.02, 3.13, 3.13, 3.58, 4.47, 4.92, 5.36, 5.36, 5.36, 5.36, 5.81, 5.81, 5.81]}]